Latitude: N 50° 09' 49" Longitude: W 05° 11' 53" Elevation: 168m ASL

There are 15 visitors online

Adverts

<- Previous Day | Today | Next Day ->

All Data for 13 July 2018

Time
A - D
Temp
A - D
Dew Point
A - D
Humidity
A - D
Pressure
A - D
Wind
A - D
Wind Dir Gust
A - D
Rain Rate
A - D
Rain Total
00:00 15.6 12.7 83 1022.9 3.1 SW 8.3 0.0 0.0
00:01 15.5 12.6 83 1022.9 3.1 W 8.3 0.0 0.0
00:03 15.5 12.6 83 1022.9 6.0 NW 6.0 0.0 0.0
00:04 15.5 12.6 83 1023.0 3.1 NW 6.0 0.0 0.0
00:05 15.5 12.8 84 1023.1 4.5 W 6.0 0.0 0.0
00:06 15.5 12.8 84 1022.9 3.8 W 6.0 0.0 0.0
00:07 15.5 12.8 84 1022.9 6.0 SE 6.0 0.0 0.0
00:08 15.5 12.8 84 1022.9 3.8 N 6.0 0.0 0.0
00:09 15.5 12.8 84 1023.0 4.5 E 6.0 0.0 0.0
00:10 15.5 12.8 84 1023.1 3.8 SW 6.0 0.0 0.0
00:11 15.5 12.8 84 1023.0 4.5 NW 6.0 0.0 0.0
00:12 15.5 12.8 84 1022.9 5.4 W 6.0 0.0 0.0
00:13 15.5 12.8 84 1023.0 6.9 W 6.9 0.0 0.0
00:14 15.5 12.8 84 1023.1 6.0 E 6.9 0.0 0.0
00:15 15.5 12.8 84 1022.9 7.6 NW 8.3 0.0 0.0
00:16 15.6 12.9 84 1022.9 9.2 NE 9.2 0.0 0.0
00:17 15.6 12.9 84 1022.9 3.8 N 9.2 0.0 0.0
00:18 15.6 12.9 84 1023.0 5.4 NW 9.2 0.0 0.0
00:19 15.6 12.9 84 1022.9 3.8 NW 9.2 0.0 0.0
00:20 15.6 12.9 84 1022.9 3.1 NW 9.2 0.0 0.0
00:22 15.6 12.9 84 1022.8 3.1 NW 9.2 0.0 0.0
00:23 15.5 12.8 84 1023.0 3.8 NE 9.2 0.0 0.0
00:24 15.6 13.1 85 1022.8 2.2 NE 9.2 0.0 0.0
00:25 15.5 13.0 85 1022.9 4.5 NW 9.2 0.0 0.0
00:26 15.5 13.0 85 1022.9 4.5 NW 9.2 0.0 0.0
00:27 15.5 13.0 85 1023.0 3.1 NW 6.9 0.0 0.0
00:28 15.5 13.0 85 1022.8 3.8 W 5.4 0.0 0.0
00:29 15.5 13.0 85 1022.8 6.0 NW 6.0 0.0 0.0
00:30 15.5 13.0 85 1023.0 4.5 NE 6.0 0.0 0.0
00:31 15.5 13.0 85 1023.0 5.4 N 6.0 0.0 0.0
00:32 15.5 13.0 85 1022.9 3.8 N 6.0 0.0 0.0
00:33 15.5 13.0 85 1023.0 4.5 NW 6.0 0.0 0.0
00:34 15.5 13.0 85 1023.0 7.6 N 7.6 0.0 0.0
00:35 15.5 13.0 85 1022.9 4.5 NW 7.6 0.0 0.0
00:38 15.5 13.0 85 1022.9 4.5 SW 7.6 0.0 0.0
00:39 15.5 13.0 85 1022.9 6.9 N 8.3 0.0 0.0
00:40 15.5 13.0 85 1023.0 3.1 SW 8.3 0.0 0.0
00:41 15.5 13.0 85 1022.9 3.8 NW 8.3 0.0 0.0
00:42 15.5 13.0 85 1022.9 4.5 N 8.3 0.0 0.0
00:43 15.5 13.2 86 1022.9 3.1 N 8.3 0.0 0.0
00:44 15.5 13.2 86 1023.1 8.3 NW 8.3 0.0 0.0
00:45 15.5 13.2 86 1022.9 4.5 N 8.3 0.0 0.0
00:46 15.5 13.2 86 1023.0 3.1 NW 8.3 0.0 0.0
00:48 15.5 13.2 86 1023.0 2.2 E 8.3 0.0 0.0
00:49 15.5 13.2 86 1023.0 3.8 N 8.3 0.0 0.0
00:50 15.5 13.2 86 1022.9 6.9 N 8.3 0.0 0.0
00:51 15.5 13.2 86 1023.0 2.2 N 8.3 0.0 0.0
00:52 15.5 13.2 86 1022.8 4.5 NW 8.3 0.0 0.0
00:53 15.5 13.2 86 1023.0 3.8 SE 8.3 0.0 0.0
00:54 15.5 13.2 86 1022.9 7.6 N 8.3 0.0 0.0
00:55 15.5 13.2 86 1023.1 3.1 NW 7.6 0.0 0.0
00:56 15.5 13.2 86 1023.1 6.0 SE 7.6 0.0 0.0
00:57 15.5 13.2 86 1022.9 3.8 W 7.6 0.0 0.0
00:58 15.5 13.2 86 1023.1 6.0 N 7.6 0.0 0.0
00:59 15.5 13.2 86 1023.1 3.1 W 7.6 0.0 0.0
01:00 15.5 13.2 86 1023.1 6.0 N 7.6 0.0 0.0
01:01 15.5 13.2 86 1023.1 6.0 N 7.6 0.0 0.0
01:02 15.5 13.2 86 1023.1 6.0 N 7.6 0.0 0.0
01:03 15.5 13.2 86 1023.0 6.0 N 7.6 0.0 0.0
01:04 15.5 13.2 86 1023.0 6.0 N 6.0 0.0 0.0
01:05 15.6 13.3 86 1023.0 3.8 W 6.0 0.0 0.0
01:06 15.6 13.5 87 1022.9 3.8 NW 6.0 0.0 0.0
01:07 15.6 13.5 87 1023.1 3.1 NE 6.0 0.0 0.0
01:08 15.6 13.5 87 1023.0 3.8 N 6.0 0.0 0.0
01:09 15.6 13.5 87 1023.1 6.0 N 6.0 0.0 0.0
01:11 15.6 13.5 87 1023.1 4.5 N 6.0 0.0 0.0
01:12 15.6 13.5 87 1023.0 6.0 E 6.9 0.0 0.0
01:13 15.6 13.5 87 1023.2 3.1 NW 6.9 0.0 0.0
01:14 15.6 13.5 87 1023.2 3.1 NW 6.9 0.0 0.0
01:15 15.6 13.5 87 1023.1 3.8 NE 6.9 0.0 0.0
01:16 15.6 13.5 87 1023.1 6.0 NW 6.9 0.0 0.0
01:17 15.6 13.5 87 1023.1 6.0 N 6.9 0.0 0.0
01:18 15.6 13.5 87 1023.1 3.1 NW 6.9 0.0 0.0
01:19 15.6 13.5 87 1023.1 6.0 N 6.9 0.0 0.0
01:20 15.6 13.5 87 1023.0 5.4 E 6.9 0.0 0.0
01:21 15.6 13.5 87 1023.1 5.4 NW 6.9 0.0 0.0
01:22 15.6 13.5 87 1023.0 3.8 NW 6.9 0.0 0.0
01:23 15.7 13.5 87 1023.0 7.6 N 7.6 0.0 0.0
01:24 15.7 13.5 87 1023.0 5.4 NE 7.6 0.0 0.0
01:25 15.7 13.5 87 1023.0 6.9 NE 7.6 0.0 0.0
01:26 15.7 13.5 87 1023.0 6.0 NW 7.6 0.0 0.0
01:27 15.7 13.5 87 1022.9 7.6 NW 7.6 0.0 0.0
01:28 15.7 13.5 87 1023.0 5.4 N 7.6 0.0 0.0
01:30 15.7 13.5 87 1023.0 7.6 NE 7.6 0.0 0.0
01:31 15.7 13.5 87 1022.9 5.4 NE 7.6 0.0 0.0
01:32 15.7 13.5 87 1023.0 5.4 NW 7.6 0.0 0.0
01:33 15.7 13.5 87 1022.9 4.5 W 7.6 0.0 0.0
01:34 15.7 13.5 87 1023.0 5.4 W 7.6 0.0 0.0
01:35 15.7 13.5 87 1023.0 6.0 NE 7.6 0.0 0.0
01:36 15.7 13.5 87 1022.8 6.9 NW 7.6 0.0 0.0
01:37 15.7 13.5 87 1022.9 4.5 N 7.6 0.0 0.0
01:38 15.7 13.5 87 1023.1 6.0 NW 7.6 0.0 0.0
01:39 15.7 13.5 87 1022.9 5.4 N 7.6 0.0 0.0
01:40 15.7 13.5 87 1022.9 10.7 NE 10.7 0.0 0.0
01:41 15.7 13.5 87 1022.9 7.6 N 10.7 0.0 0.0
01:42 15.7 13.5 87 1023.0 6.9 W 10.7 0.0 0.0
01:43 15.7 13.5 87 1022.9 7.6 NNW 10.7 0.0 0.0
01:44 15.7 13.5 87 1023.0 3.8 NE 10.7 0.0 0.0
01:45 15.7 13.5 87 1023.0 4.5 NW 10.7 0.0 0.0
01:46 15.7 13.5 87 1023.0 5.4 WNW 10.7 0.0 0.0
01:47 15.7 13.5 87 1022.9 6.0 NW 10.7 0.0 0.0
01:49 15.8 13.8 88 1022.9 4.5 SW 10.7 0.0 0.0
01:50 15.7 13.7 88 1022.9 6.9 NW 9.2 0.0 0.0
01:51 15.7 13.7 88 1022.9 5.4 NW 9.2 0.0 0.0
01:52 15.7 13.7 88 1022.8 5.4 ENE 9.2 0.0 0.0
01:53 15.7 13.7 88 1022.9 9.2 NE 9.2 0.0 0.0
01:54 15.7 13.7 88 1022.8 7.6 N 9.2 0.0 0.0
01:55 15.7 13.7 88 1022.9 6.0 N 9.2 0.0 0.0
01:56 15.7 13.7 88 1022.8 6.0 NW 9.2 0.0 0.0
01:57 15.7 13.7 88 1022.8 5.4 E 9.2 0.0 0.0
01:58 15.7 13.7 88 1022.9 3.8 N 9.2 0.0 0.0
01:59 15.7 13.7 88 1022.8 5.4 E 9.2 0.0 0.0
02:00 15.7 13.7 88 1022.9 7.6 NW 9.2 0.0 0.0
02:01 15.7 13.7 88 1022.9 7.6 NW 9.2 0.0 0.0
02:02 15.7 13.7 88 1022.8 7.6 WNW 9.2 0.0 0.0
02:03 15.7 13.7 88 1022.8 6.9 S 7.6 0.0 0.0
02:04 15.7 13.7 88 1022.9 9.8 N 9.8 0.0 0.0
02:05 15.7 13.7 88 1022.8 3.8 N 9.8 0.0 0.0
02:06 15.6 13.6 88 1022.9 3.8 NE 9.8 0.0 0.0
02:08 15.6 13.6 88 1022.9 5.4 N 9.8 0.0 0.0
02:09 15.6 13.6 88 1022.9 3.8 N 9.8 0.0 0.0
02:10 15.6 13.6 88 1022.7 6.9 NW 9.8 0.0 0.0
02:11 15.6 13.6 88 1022.7 6.0 SW 9.8 0.0 0.0
02:12 15.6 13.6 88 1022.8 6.9 NW 9.8 0.0 0.0
02:13 15.6 13.6 88 1022.9 3.8 N 9.8 0.0 0.0
02:14 15.6 13.6 88 1022.8 3.8 N 9.8 0.0 0.0
02:15 15.6 13.6 88 1022.6 5.4 N 9.8 0.0 0.0
02:16 15.6 13.6 88 1022.7 5.4 W 8.3 0.0 0.0
02:17 15.5 13.5 88 1022.7 3.8 W 8.3 0.0 0.0
02:18 15.5 13.5 88 1022.8 4.5 E 7.6 0.0 0.0
02:19 15.5 13.5 88 1022.7 4.5 E 6.9 0.0 0.0
02:20 15.5 13.5 88 1022.8 5.4 N 6.9 0.0 0.0
02:21 15.5 13.5 88 1022.8 5.4 WSW 6.9 0.0 0.0
02:22 15.5 13.5 88 1022.8 4.5 N 5.4 0.0 0.0
02:23 15.4 13.4 88 1022.8 8.3 NE 8.3 0.0 0.0
02:24 15.4 13.4 88 1022.8 3.8 E 8.3 0.0 0.0
02:25 15.4 13.4 88 1022.7 3.8 S 8.3 0.0 0.0
02:27 15.4 13.4 88 1022.8 7.6 WNW 8.3 0.0 0.0
02:28 15.4 13.4 88 1022.8 3.8 NE 8.3 0.0 0.0
02:29 15.3 13.3 88 1022.7 3.8 NW 8.3 0.0 0.0
02:30 15.3 13.3 88 1022.7 3.8 NW 8.3 0.0 0.0
02:31 15.3 13.3 88 1022.8 6.0 N 8.3 0.0 0.0
02:32 15.3 13.3 88 1022.8 3.1 W 8.3 0.0 0.0
02:33 15.3 13.3 88 1022.7 6.0 W 8.3 0.0 0.0
02:34 15.3 13.3 88 1022.8 3.1 NE 7.6 0.0 0.0
02:35 15.3 13.3 88 1022.7 4.5 NE 7.6 0.0 0.0
02:36 15.3 13.3 88 1022.8 3.1 NE 7.6 0.0 0.0
02:37 15.3 13.3 88 1022.7 5.4 NW 7.6 0.0 0.0
02:38 15.2 13.2 88 1022.7 4.5 NW 6.0 0.0 0.0
02:39 15.2 13.2 88 1022.7 1.6 N 6.0 0.0 0.0
02:40 15.2 13.2 88 1022.7 3.8 N 6.0 0.0 0.0
02:41 15.2 13.2 88 1022.6 6.0 NW 6.0 0.0 0.0
02:42 15.2 13.2 88 1022.7 6.9 N 6.9 0.0 0.0
02:43 15.2 13.2 88 1022.7 6.0 NE 6.9 0.0 0.0
02:44 15.2 13.2 88 1022.7 3.8 N 6.9 0.0 0.0
02:46 15.2 13.2 88 1022.7 3.8 SW 6.9 0.0 0.0
02:47 15.2 13.2 88 1022.6 3.8 NW 6.9 0.0 0.0
02:48 15.1 13.1 88 1022.7 4.5 NE 6.9 0.0 0.0
02:49 15.1 13.1 88 1022.7 4.5 NE 6.9 0.0 0.0
02:50 15.1 13.1 88 1022.5 2.2 SE 6.9 0.0 0.0
02:51 15.1 13.1 88 1022.7 6.9 NW 6.9 0.0 0.0
02:52 15.1 13.1 88 1022.7 4.5 NW 6.9 0.0 0.0
02:53 15.1 13.3 89 1022.5 4.5 N 6.9 0.0 0.0
02:54 15.1 13.3 89 1022.6 5.4 SE 6.9 0.0 0.0
02:55 15.1 13.3 89 1022.5 8.3 E 8.3 0.0 0.0
02:56 15.1 13.3 89 1022.8 5.4 N 8.3 0.0 0.0
02:57 15.1 13.3 89 1022.7 5.4 N 8.3 0.0 0.0
02:58 15.1 13.3 89 1022.6 5.4 N 8.3 0.0 0.0
02:59 15.0 13.2 89 1022.6 3.8 SW 8.3 0.0 0.0
03:00 15.0 13.2 89 1022.4 6.9 N 8.3 0.0 0.0
03:01 15.0 13.2 89 1022.5 3.8 SW 8.3 0.0 0.0
03:02 15.0 13.2 89 1022.4 6.0 N 8.3 0.0 0.0
03:03 15.0 13.2 89 1022.5 5.4 N 8.3 0.0 0.0
03:05 15.0 13.2 89 1022.3 6.9 W 6.9 0.0 0.0
03:06 15.0 13.2 89 1022.5 3.8 NW 6.9 0.0 0.0
03:07 15.0 13.2 89 1022.4 6.0 NW 6.9 0.0 0.0
03:08 15.0 13.2 89 1022.5 4.5 N 6.9 0.0 0.0
03:09 15.0 13.2 89 1022.6 5.4 NW 6.9 0.0 0.0
03:10 15.0 13.2 89 1022.5 3.8 NW 6.9 0.0 0.0
03:11 15.0 13.2 89 1022.3 5.4 NW 6.9 0.0 0.0
03:12 15.0 13.2 89 1022.5 5.4 NW 6.9 0.0 0.0
03:13 14.9 13.1 89 1022.6 5.4 NW 6.9 0.0 0.0
03:14 14.9 13.1 89 1022.5 2.2 NW 6.9 0.0 0.0
03:15 14.9 13.1 89 1022.5 5.4 WNW 6.9 0.0 0.0
03:16 14.9 13.1 89 1022.4 6.0 N 6.0 0.0 0.0
03:17 14.9 13.1 89 1022.6 5.4 N 6.0 0.0 0.0
03:18 14.9 13.1 89 1022.5 3.8 N 6.0 0.0 0.0
03:19 14.9 13.1 89 1022.5 3.1 NW 6.0 0.0 0.0
03:20 14.9 13.1 89 1022.5 4.5 N 6.0 0.0 0.0
03:21 14.9 13.1 89 1022.5 3.1 N 6.0 0.0 0.0
03:22 14.9 13.1 89 1022.6 5.4 NW 6.0 0.0 0.0
03:24 14.9 13.1 89 1022.5 3.1 N 6.0 0.0 0.0
03:25 14.9 13.1 89 1022.7 3.8 N 6.0 0.0 0.0
03:26 14.8 13.0 89 1022.5 3.1 N 5.4 0.0 0.0
03:27 14.9 13.1 89 1022.6 5.4 NE 5.4 0.0 0.0
03:28 14.9 13.1 89 1022.5 3.1 NE 5.4 0.0 0.0
03:29 14.9 13.3 90 1022.6 3.1 N 5.4 0.0 0.0
03:30 14.9 13.3 90 1022.5 3.8 NE 5.4 0.0 0.0
03:31 14.9 13.3 90 1022.5 3.8 NE 5.4 0.0 0.0
03:32 14.9 13.3 90 1022.4 5.4 NE 5.4 0.0 0.0
03:33 14.9 13.3 90 1022.4 4.5 N 5.4 0.0 0.0
03:34 14.9 13.3 90 1022.4 6.0 N 6.0 0.0 0.0
03:35 14.9 13.3 90 1022.5 6.9 NNW 6.9 0.0 0.0
03:36 14.9 13.3 90 1022.4 5.4 NE 6.9 0.0 0.0
03:37 14.9 13.3 90 1022.4 5.4 NE 6.9 0.0 0.0
03:38 14.9 13.3 90 1022.2 5.4 NE 6.9 0.0 0.0
03:39 14.9 13.3 90 1022.4 5.4 NE 6.9 0.0 0.0
03:40 14.9 13.3 90 1022.4 5.4 NE 6.9 0.0 0.0
03:41 14.9 13.3 90 1022.4 4.5 NE 6.9 0.0 0.0
03:42 14.8 13.2 90 1022.4 5.4 NE 6.9 0.0 0.0
03:43 14.8 13.2 90 1022.5 5.4 NE 6.9 0.0 0.0
03:45 14.8 13.2 90 1022.5 3.8 E 5.4 0.0 0.0
03:46 14.8 13.2 90 1022.3 4.5 NE 5.4 0.0 0.0
03:47 14.8 13.2 90 1022.4 5.4 NE 5.4 0.0 0.0
03:48 14.8 13.2 90 1022.2 4.5 SE 5.4 0.0 0.0
03:49 14.8 13.2 90 1022.4 3.1 E 5.4 0.0 0.0
03:50 14.7 13.1 90 1022.4 3.8 S 5.4 0.0 0.0
03:51 14.8 13.2 90 1022.2 4.5 N 5.4 0.0 0.0
03:52 14.7 13.1 90 1022.3 3.8 N 5.4 0.0 0.0
03:53 14.7 13.1 90 1022.3 2.2 NW 5.4 0.0 0.0
03:54 14.7 13.1 90 1022.5 5.4 E 5.4 0.0 0.0
03:55 14.7 13.1 90 1022.4 2.2 NW 5.4 0.0 0.0
03:56 14.7 13.1 90 1022.3 2.2 N 5.4 0.0 0.0
03:57 14.7 13.1 90 1022.3 3.1 N 5.4 0.0 0.0
03:58 14.7 13.1 90 1022.5 1.6 W 5.4 0.0 0.0
03:59 14.7 13.1 90 1022.3 3.8 W 5.4 0.0 0.0
04:00 14.7 13.1 90 1022.4 2.2 NE 5.4 0.0 0.0
04:01 14.7 13.1 90 1022.4 2.2 NE 5.4 0.0 0.0
04:02 14.7 13.1 90 1022.4 2.2 NE 5.4 0.0 0.0
04:04 14.7 13.1 90 1022.4 2.2 NE 4.5 0.0 0.0
04:05 14.7 13.1 90 1022.4 3.1 NW 4.5 0.0 0.0
04:06 14.7 13.1 90 1022.4 4.5 N 4.5 0.0 0.0
04:07 14.7 13.1 90 1022.3 3.8 ENE 4.5 0.0 0.0
04:08 14.7 13.1 90 1022.5 4.5 E 4.5 0.0 0.0
04:09 14.7 13.1 90 1022.3 2.2 NE 4.5 0.0 0.0
04:10 14.7 13.1 90 1022.3 2.2 NE 4.5 0.0 0.0
04:11 14.7 13.1 90 1022.4 2.2 NE 4.5 0.0 0.0
04:12 14.7 13.1 90 1022.3 3.1 W 4.5 0.0 0.0
04:13 14.7 13.1 90 1022.4 3.1 N 4.5 0.0 0.0
04:14 14.7 13.3 91 1022.5 3.8 N 4.5 0.0 0.0
04:15 14.7 13.1 90 1022.4 3.1 N 4.5 0.0 0.0
04:16 14.7 13.1 90 1022.4 3.8 NW 4.5 0.0 0.0
04:17 14.7 13.3 91 1022.5 4.5 WNW 4.5 0.0 0.0
04:18 14.7 13.3 91 1022.5 3.8 SE 4.5 0.0 0.0
04:23 14.7 13.3 91 1022.6 4.5 N 5.4 0.0 0.0
04:24 14.7 13.3 91 1022.4 3.8 WSW 5.4 0.0 0.0
04:25 14.7 13.3 91 1022.5 3.1 N 5.4 0.0 0.0
04:26 14.7 13.3 91 1022.6 3.8 N 5.4 0.0 0.0
04:27 14.7 13.3 91 1022.6 4.5 WNW 5.4 0.0 0.0
04:28 14.7 13.3 91 1022.5 3.8 N 5.4 0.0 0.0
04:29 14.7 13.3 91 1022.5 2.2 SW 5.4 0.0 0.0
04:30 14.7 13.3 91 1022.5 2.2 N 5.4 0.0 0.0
04:31 14.7 13.3 91 1022.5 5.4 N 5.4 0.0 0.0
04:32 14.7 13.3 91 1022.5 3.1 NE 5.4 0.0 0.0
04:33 14.7 13.3 91 1022.6 3.1 NW 5.4 0.0 0.0
04:34 14.7 13.3 91 1022.6 2.2 NW 5.4 0.0 0.0
04:35 14.7 13.3 91 1022.6 3.8 NW 5.4 0.0 0.0
04:37 14.7 13.3 91 1022.6 3.8 N 5.4 0.0 0.0
04:38 14.7 13.3 91 1022.4 3.8 N 5.4 0.0 0.0
04:39 14.7 13.3 91 1022.5 3.1 NE 5.4 0.0 0.0
04:40 14.7 13.3 91 1022.5 1.6 N 5.4 0.0 0.0
04:41 14.7 13.3 91 1022.5 2.2 N 5.4 0.0 0.0
04:42 14.7 13.3 91 1022.4 3.1 NW 5.4 0.0 0.0
04:43 14.7 13.3 91 1022.5 2.2 N 5.4 0.0 0.0
04:44 14.7 13.3 91 1022.5 1.6 NE 5.4 0.0 0.0
04:45 14.7 13.3 91 1022.4 3.1 NW 5.4 0.0 0.0
04:46 14.7 13.3 91 1022.5 2.2 SSE 5.4 0.0 0.0
04:47 14.7 13.3 91 1022.5 2.2 SSE 3.8 0.0 0.0
04:48 14.6 13.2 91 1022.3 4.5 W 4.5 0.0 0.0
04:49 14.6 13.2 91 1022.5 1.6 NE 4.5 0.0 0.0
04:50 14.6 13.2 91 1022.5 3.1 N 4.5 0.0 0.0
04:51 14.6 13.2 91 1022.5 2.2 S 4.5 0.0 0.0
04:52 14.6 13.2 91 1022.4 2.2 NW 4.5 0.0 0.0
04:54 14.6 13.2 91 1022.3 6.0 NW 6.0 0.0 0.0
04:55 14.6 13.2 91 1022.5 2.2 NE 6.0 0.0 0.0
04:56 14.6 13.2 91 1022.7 2.2 E 6.0 0.0 0.0
04:57 14.6 13.2 91 1022.6 3.1 NE 6.0 0.0 0.0
04:58 14.6 13.2 91 1022.4 1.6 SSW 6.0 0.0 0.0
04:59 14.6 13.3 92 1022.6 3.1 NW 6.0 0.0 0.0
05:00 14.6 13.2 91 1022.5 2.2 N 6.0 0.0 0.0
05:01 14.6 13.2 91 1022.5 2.2 N 6.0 0.0 0.0
05:02 14.6 13.3 92 1022.7 3.1 N 6.0 0.0 0.0
05:03 14.6 13.3 92 1022.6 2.2 SE 6.0 0.0 0.0
05:04 14.6 13.3 92 1022.6 3.8 NW 3.8 0.0 0.0
05:05 14.6 13.3 92 1022.7 3.1 NW 3.8 0.0 0.0
05:06 14.6 13.3 92 1022.6 1.6 NE 3.8 0.0 0.0
05:07 14.6 13.2 91 1022.5 3.1 NE 3.8 0.0 0.0
05:08 14.6 13.3 92 1022.6 3.1 N 3.8 0.0 0.0
05:09 14.6 13.3 92 1022.4 1.6 N 3.8 0.0 0.0
05:11 14.6 13.3 92 1022.6 3.8 WSW 3.8 0.0 0.0
05:12 14.6 13.3 92 1022.5 2.2 NW 3.8 0.0 0.0
05:13 14.6 13.3 92 1022.5 3.1 N 3.8 0.0 0.0
05:14 14.6 13.3 92 1022.7 3.1 NW 3.8 0.0 0.0
05:15 14.6 13.3 92 1022.5 3.1 NE 3.8 0.0 0.0
05:16 14.6 13.3 92 1022.6 2.2 NW 3.8 0.0 0.0
05:17 14.6 13.3 92 1022.6 1.6 NW 3.8 0.0 0.0
05:18 14.6 13.3 92 1022.7 2.2 N 3.8 0.0 0.0
05:19 14.6 13.3 92 1022.5 2.2 W 3.8 0.0 0.0
05:20 14.6 13.3 92 1022.5 2.2 W 3.8 0.0 0.0
05:21 14.6 13.3 92 1022.5 1.6 NE 3.8 0.0 0.0
05:22 14.6 13.3 92 1022.6 2.2 NW 3.1 0.0 0.0
05:23 14.6 13.3 92 1022.5 1.6 N 3.1 0.0 0.0
05:24 14.6 13.3 92 1022.4 3.1 NNE 3.1 0.0 0.0
05:26 14.6 13.3 92 1022.6 3.8 N 3.8 0.0 0.0
05:27 14.6 13.3 92 1022.5 3.1 NW 3.8 0.0 0.0
05:28 14.6 13.3 92 1022.4 3.1 N 3.8 0.0 0.0
05:29 14.6 13.3 92 1022.4 3.8 N 3.8 0.0 0.0
05:30 14.6 13.3 92 1022.6 3.8 NW 3.8 0.0 0.0
05:31 14.6 13.3 92 1022.5 3.1 NW 3.8 0.0 0.0
05:32 14.6 13.3 92 1022.4 3.8 NW 3.8 0.0 0.0
05:33 14.7 13.4 92 1022.3 3.8 N 3.8 0.0 0.0
05:34 14.7 13.4 92 1022.4 3.1 NE 3.8 0.0 0.0
05:35 14.7 13.4 92 1022.6 3.8 N 3.8 0.0 0.0
05:36 14.7 13.4 92 1022.5 3.8 NW 3.8 0.0 0.0
05:37 14.7 13.4 92 1022.5 2.2 N 3.8 0.0 0.0
05:38 14.7 13.4 92 1022.5 2.2 NE 3.8 0.0 0.0
05:39 14.7 13.4 92 1022.5 3.8 E 3.8 0.0 0.0
05:41 14.8 13.5 92 1022.3 3.1 NW 4.5 0.0 0.0
05:42 14.8 13.5 92 1022.4 2.2 NW 4.5 0.0 0.0
05:43 14.8 13.7 93 1022.4 4.5 N 5.4 0.0 0.0
05:44 14.8 13.7 93 1022.5 3.8 WSW 5.4 0.0 0.0
05:45 14.8 13.7 93 1022.3 6.0 W 6.0 0.0 0.0
05:46 14.9 13.8 93 1022.5 3.1 NW 6.0 0.0 0.0
05:47 14.9 13.8 93 1022.4 4.5 N 6.0 0.0 0.0
05:48 14.9 13.8 93 1022.4 4.5 N 6.0 0.0 0.0
05:49 14.9 13.8 93 1022.5 4.5 E 6.0 0.0 0.0
05:50 14.9 13.8 93 1022.5 2.2 NE 6.0 0.0 0.0
05:51 14.9 13.8 93 1022.3 3.8 N 6.0 0.0 0.0
05:52 15.0 13.9 93 1022.4 3.8 NW 6.0 0.0 0.0
05:53 15.0 13.9 93 1022.4 3.1 N 6.0 0.0 0.0
05:55 15.0 13.9 93 1022.6 3.1 NW 6.0 0.0 0.0
05:56 15.0 13.9 93 1022.5 3.8 E 4.5 0.0 0.0
05:57 15.0 13.9 93 1022.6 5.4 N 5.4 0.0 0.0
05:58 15.0 13.9 93 1022.7 4.5 N 5.4 0.0 0.0
05:59 15.0 13.9 93 1022.7 3.8 WNW 5.4 0.0 0.0
06:00 15.0 13.9 93 1022.6 3.1 N 5.4 0.0 0.0
06:01 15.0 13.9 93 1022.6 3.1 N 5.4 0.0 0.0
06:02 15.0 13.9 93 1022.6 3.8 NW 5.4 0.0 0.0
06:03 15.1 14.0 93 1022.5 3.1 ENE 5.4 0.0 0.0
06:04 15.1 14.0 93 1022.4 4.5 N 5.4 0.0 0.0
06:05 15.1 14.0 93 1022.5 3.8 NE 5.4 0.0 0.0
06:06 15.1 14.0 93 1022.6 2.2 N 5.4 0.0 0.0
06:07 15.1 14.0 93 1022.6 3.8 NE 5.4 0.0 0.0
06:08 15.1 14.0 93 1022.6 3.1 NE 4.5 0.0 0.0
06:10 15.1 14.0 93 1022.5 1.6 N 4.5 0.0 0.0
06:11 15.1 14.0 93 1022.6 3.1 WNW 4.5 0.0 0.0
06:12 15.1 14.0 93 1022.6 3.8 NW 4.5 0.0 0.0
06:13 15.1 14.0 93 1022.6 3.8 N 4.5 0.0 0.0
06:14 15.1 14.0 93 1022.6 4.5 N 4.5 0.0 0.0
06:15 15.1 14.0 93 1022.6 3.1 NE 4.5 0.0 0.0
06:16 15.1 14.0 93 1022.6 3.8 NNE 4.5 0.0 0.0
06:17 15.1 14.0 93 1022.6 3.1 ENE 4.5 0.0 0.0
06:18 15.1 14.0 93 1022.6 3.1 NW 4.5 0.0 0.0
06:19 15.1 14.0 93 1022.5 3.1 NW 4.5 0.0 0.0
06:20 15.1 14.0 93 1022.6 3.1 N 4.5 0.0 0.0
06:21 15.1 14.0 93 1022.6 3.1 NE 4.5 0.0 0.0
06:22 15.1 14.0 93 1022.6 3.1 N 4.5 0.0 0.0
06:23 15.1 14.0 93 1022.6 3.1 N 4.5 0.0 0.0
06:24 15.1 14.0 93 1022.4 2.2 NW 4.5 0.0 0.0
06:26 15.1 14.0 93 1022.6 2.2 NE 4.5 0.0 0.0
06:27 15.1 14.0 93 1022.6 3.1 N 4.5 0.0 0.0
06:28 15.1 14.0 93 1022.6 3.8 SW 4.5 0.0 0.0
06:29 15.1 14.0 93 1022.6 3.1 SW 4.5 0.0 0.0
06:30 15.1 14.0 93 1022.6 3.8 NE 4.5 0.0 0.0
06:31 15.1 14.0 93 1022.6 1.6 N 3.8 0.0 0.0
06:32 15.1 14.0 93 1022.6 3.8 W 3.8 0.0 0.0
06:33 15.1 14.0 93 1022.6 4.5 W 4.5 0.0 0.0
06:34 15.1 14.0 93 1022.6 2.2 W 4.5 0.0 0.0
06:35 15.2 14.1 93 1022.7 2.2 N 4.5 0.0 0.0
06:36 15.1 14.0 93 1022.6 5.4 W 5.4 0.0 0.0
06:37 15.1 14.0 93 1022.6 3.8 N 5.4 0.0 0.0
06:38 15.1 14.0 93 1022.7 6.0 W 6.0 0.0 0.0
06:39 15.2 14.1 93 1022.6 3.8 N 6.0 0.0 0.0
06:41 15.2 14.1 93 1022.7 4.5 N 6.0 0.0 0.0
06:42 15.2 14.1 93 1022.8 3.1 N 6.0 0.0 0.0
06:43 15.2 14.1 93 1022.6 4.5 WSW 6.0 0.0 0.0
06:44 15.2 14.1 93 1022.6 5.4 NW 6.0 0.0 0.0
06:45 15.2 14.1 93 1022.8 3.1 N 6.0 0.0 0.0
06:46 15.2 14.1 93 1022.5 3.8 NW 6.0 0.0 0.0
06:47 15.2 14.1 93 1022.8 4.5 N 6.0 0.0 0.0
06:48 15.2 14.1 93 1022.7 5.4 NW 6.0 0.0 0.0
06:49 15.2 14.1 93 1022.5 5.4 NW 6.0 0.0 0.0
06:50 15.2 14.1 93 1022.8 5.4 WNW 6.0 0.0 0.0
06:51 15.2 14.1 93 1022.7 5.4 NW 6.0 0.0 0.0
06:52 15.3 14.2 93 1022.7 3.1 NE 6.0 0.0 0.0
06:53 15.2 14.1 93 1022.6 6.0 S 6.9 0.0 0.0
06:54 15.2 14.1 93 1022.7 3.8 S 6.9 0.0 0.0
06:56 15.3 14.2 93 1022.8 1.6 W 6.9 0.0 0.0
06:57 15.3 14.2 93 1022.7 6.9 W 6.9 0.0 0.0
06:58 15.3 14.2 93 1022.6 3.8 E 6.9 0.0 0.0
06:59 15.3 14.2 93 1022.6 4.5 N 6.9 0.0 0.0
07:00 15.3 14.2 93 1022.6 3.8 NW 6.9 0.0 0.0
07:01 15.3 14.2 93 1022.6 3.8 NW 6.9 0.0 0.0
07:02 15.3 14.2 93 1022.6 3.8 N 6.9 0.0 0.0
07:03 15.3 14.2 93 1022.7 6.0 NE 6.9 0.0 0.0
07:04 15.3 14.2 93 1022.7 4.5 N 6.9 0.0 0.0
07:05 15.4 14.3 93 1022.7 3.1 WSW 6.9 0.0 0.0
07:06 15.4 14.3 93 1022.7 3.8 WNW 6.9 0.0 0.0
07:07 15.4 14.3 93 1022.7 3.8 NW 6.9 0.0 0.0
07:08 15.4 14.3 93 1022.8 2.2 N 6.0 0.0 0.0
07:09 15.4 14.3 93 1022.7 3.8 ENE 6.0 0.0 0.0
07:10 15.4 14.3 93 1022.7 9.2 N 9.2 0.0 0.0
07:11 15.4 14.3 93 1022.7 7.6 NW 9.2 0.0 0.0
07:12 15.4 14.3 93 1022.8 6.0 NW 9.2 0.0 0.0
07:14 15.4 14.3 93 1022.8 5.4 E 9.2 0.0 0.0
07:15 15.5 14.4 93 1022.7 3.8 WNW 9.2 0.0 0.0
07:16 15.5 14.4 93 1022.8 3.8 NE 9.2 0.0 0.0
07:17 15.5 14.4 93 1022.8 3.1 NW 9.2 0.0 0.0
07:18 15.5 14.4 93 1022.8 3.8 N 9.2 0.0 0.0
07:19 15.5 14.4 93 1022.7 5.4 NW 9.2 0.0 0.0
07:20 15.5 14.4 93 1022.9 6.9 SE 7.6 0.0 0.0
07:21 15.5 14.4 93 1022.8 3.8 NW 6.9 0.0 0.0
07:22 15.5 14.4 93 1022.8 5.4 N 6.9 0.0 0.0
07:23 15.5 14.4 93 1022.8 4.5 NW 6.9 0.0 0.0
07:24 15.5 14.4 93 1022.9 4.5 W 6.9 0.0 0.0
07:25 15.5 14.4 93 1022.8 2.2 N 6.9 0.0 0.0
07:26 15.5 14.4 93 1022.8 6.9 N 6.9 0.0 0.0
07:27 15.6 14.5 93 1022.8 6.9 NW 6.9 0.0 0.0
07:29 15.6 14.5 93 1022.8 9.2 NW 9.2 0.0 0.0
07:30 15.6 14.5 93 1022.8 6.0 NW 9.2 0.0 0.0
07:31 15.6 14.5 93 1022.8 7.6 NE 9.2 0.0 0.0
07:32 15.6 14.5 93 1022.9 4.5 N 9.2 0.0 0.0
07:33 15.6 14.5 93 1022.8 5.4 SW 9.2 0.0 0.0
07:34 15.7 14.6 93 1022.8 8.3 NW 13.0 0.0 0.0
07:35 15.7 14.6 93 1023.0 8.3 W 13.0 0.0 0.0
07:36 15.7 14.6 93 1022.8 7.6 N 13.0 0.0 0.0
07:37 15.7 14.6 93 1022.9 7.6 N 13.0 0.0 0.0
07:38 15.7 14.6 93 1022.8 6.0 N 13.0 0.0 0.0
07:39 15.7 14.6 93 1022.9 6.0 WSW 13.0 0.0 0.0
07:40 15.7 14.6 93 1022.8 8.3 NE 13.0 0.0 0.0
07:41 15.8 14.7 93 1022.9 6.9 NW 13.0 0.0 0.0
07:42 15.8 14.7 93 1022.9 6.9 NW 13.0 0.0 0.0
07:43 15.8 14.7 93 1023.0 4.5 N 13.0 0.0 0.0
07:44 15.8 14.7 93 1023.0 4.5 NW 13.0 0.0 0.0
07:45 15.8 14.7 93 1022.9 3.8 NE 8.3 0.0 0.0
07:46 15.9 14.8 93 1022.8 3.8 NE 8.3 0.0 0.0
07:47 15.9 14.8 93 1023.0 6.0 NW 8.3 0.0 0.0
07:48 15.9 14.8 93 1022.9 4.5 NE 8.3 0.0 0.0
07:49 15.9 14.8 93 1022.9 3.1 NW 8.3 0.0 0.0
07:50 15.9 14.8 93 1022.8 3.8 W 6.9 0.0 0.0
07:51 15.9 14.8 93 1022.9 3.8 N 6.9 0.0 0.0
07:52 15.9 14.8 93 1022.9 3.8 NE 6.0 0.0 0.0
07:53 15.9 14.8 93 1022.9 3.8 N 6.0 0.0 0.0
07:54 15.9 14.8 93 1022.8 7.6 NW 7.6 0.0 0.0
07:55 15.9 14.8 93 1022.8 5.4 NE 7.6 0.0 0.0
07:56 15.9 14.8 93 1022.9 1.6 NW 7.6 0.0 0.0
07:57 16.0 14.9 93 1022.9 2.2 N 7.6 0.0 0.0
07:58 15.9 14.8 93 1022.8 3.8 NW 7.6 0.0 0.0
07:59 16.0 14.9 93 1022.9 7.6 W 7.6 0.0 0.0
08:00 16.0 14.9 93 1022.9 5.4 NW 7.6 0.0 0.0
08:01 16.0 14.9 93 1022.8 6.0 N 7.6 0.0 0.0
08:02 16.0 14.9 93 1023.0 5.4 WNW 7.6 0.0 0.0
08:03 16.0 14.9 93 1022.8 6.0 NW 7.6 0.0 0.0
08:04 16.0 14.9 93 1022.8 4.5 NE 7.6 0.0 0.0
08:05 16.1 15.0 93 1022.8 3.1 W 7.6 0.0 0.0
08:06 16.1 15.0 93 1022.8 4.5 N 7.6 0.0 0.0
08:07 16.1 15.0 93 1022.7 4.5 NW 7.6 0.0 0.0
08:08 16.1 14.8 92 1022.8 5.4 W 7.6 0.0 0.0
08:09 16.1 15.0 93 1023.0 4.5 N 7.6 0.0 0.0
08:10 16.1 14.8 92 1022.9 5.4 NW 7.6 0.0 0.0
08:11 16.1 14.8 92 1022.8 5.4 NW 7.6 0.0 0.0
08:12 16.2 14.9 92 1022.8 4.5 NW 7.6 0.0 0.0
08:13 16.2 14.9 92 1023.0 3.8 NE 6.0 0.0 0.0
08:14 16.2 14.9 92 1022.8 6.0 NE 6.0 0.0 0.0
08:15 16.2 14.9 92 1022.7 6.9 N 6.9 0.0 0.0
08:16 16.2 14.9 92 1023.0 4.5 NW 6.9 0.0 0.0
08:17 16.3 15.0 92 1022.9 6.0 NE 6.9 0.0 0.0
08:18 16.3 15.0 92 1022.8 4.5 E 6.9 0.0 0.0
08:19 16.3 15.0 92 1022.7 8.3 N 8.3 0.0 0.0
08:20 16.3 15.0 92 1022.8 6.9 WNW 8.3 0.0 0.0
08:21 16.3 15.0 92 1022.9 6.0 W 8.3 0.0 0.0
08:22 16.4 15.1 92 1022.8 3.1 WNW 8.3 0.0 0.0
08:23 16.4 15.1 92 1022.8 3.8 NE 8.3 0.0 0.0
08:24 16.4 15.1 92 1022.9 5.4 SW 8.3 0.0 0.0
08:25 16.4 15.1 92 1022.9 3.8 N 8.3 0.0 0.0
08:26 16.4 15.1 92 1022.7 3.8 WSW 8.3 0.0 0.0
08:27 16.4 15.1 92 1023.0 3.8 NW 8.3 0.0 0.0
08:28 16.5 15.2 92 1022.8 3.8 SW 8.3 0.0 0.0
08:29 16.5 15.2 92 1022.8 6.0 N 8.3 0.0 0.0
08:30 16.5 15.2 92 1022.8 5.4 NE 6.9 0.0 0.0
08:31 16.5 15.2 92 1022.8 7.6 S 7.6 0.0 0.0
08:32 16.5 15.2 92 1022.7 5.4 E 7.6 0.0 0.0
08:33 16.6 15.1 91 1022.8 3.1 NW 7.6 0.0 0.0
08:34 16.6 15.1 91 1022.8 4.5 N 7.6 0.0 0.0
08:35 16.6 15.1 91 1022.8 3.8 ENE 7.6 0.0 0.0
08:36 16.7 15.2 91 1022.8 3.8 NW 7.6 0.0 0.0
08:37 16.7 15.2 91 1022.8 6.9 N 7.6 0.0 0.0
08:38 16.7 15.2 91 1022.8 6.9 NW 7.6 0.0 0.0
08:39 16.7 15.2 91 1022.8 6.0 NW 7.6 0.0 0.0
08:40 16.7 15.2 91 1022.8 4.5 N 7.6 0.0 0.0
08:41 16.7 15.2 91 1022.9 4.5 SW 6.9 0.0 0.0
08:42 16.8 15.3 91 1022.8 6.9 N 6.9 0.0 0.0
08:43 16.8 15.3 91 1022.8 7.6 NW 7.6 0.0 0.0
08:44 16.8 15.3 91 1022.8 5.4 N 7.6 0.0 0.0
08:45 16.8 15.3 91 1022.9 3.1 SW 7.6 0.0 0.0
08:46 16.8 15.3 91 1022.8 4.5 N 7.6 0.0 0.0
08:47 16.9 15.4 91 1022.8 3.8 N 7.6 0.0 0.0
08:48 16.9 15.3 90 1022.8 3.8 NW 7.6 0.0 0.0
08:49 16.9 15.3 90 1022.8 7.6 W 7.6 0.0 0.0
08:50 17.0 15.4 90 1022.8 5.4 NW 7.6 0.0 0.0
08:51 17.0 15.4 90 1022.8 3.1 N 7.6 0.0 0.0
08:52 17.0 15.4 90 1022.8 3.8 N 7.6 0.0 0.0
08:53 17.1 15.5 90 1022.6 2.2 NE 7.6 0.0 0.0
08:54 17.1 15.5 90 1022.7 2.2 NW 7.6 0.0 0.0
08:55 17.1 15.5 90 1022.8 5.4 NW 7.6 0.0 0.0
08:56 17.1 15.5 90 1022.8 6.9 N 7.6 0.0 0.0
08:57 17.2 15.4 89 1022.8 3.8 NE 7.6 0.0 0.0
08:58 17.2 15.6 90 1022.7 5.4 NE 7.6 0.0 0.0
08:59 17.2 15.6 90 1022.8 6.9 W 7.6 0.0 0.0
09:00 17.3 15.5 89 1022.7 6.0 N 7.6 0.0 0.0
09:01 17.3 15.5 89 1022.7 4.5 WNW 6.9 0.0 0.0
09:02 17.4 15.6 89 1022.8 7.6 NW 7.6 0.0 0.0
09:03 17.4 15.6 89 1022.8 4.5 E 7.6 0.0 0.0
09:04 17.4 15.6 89 1022.7 6.9 NE 7.6 0.0 0.0
09:05 17.5 15.7 89 1022.8 3.8 NE 7.6 0.0 0.0
09:06 17.5 15.7 89 1022.8 3.8 SW 7.6 0.0 0.0
09:07 17.5 15.7 89 1022.8 5.4 W 7.6 0.0 0.0
09:08 17.6 15.6 88 1022.8 6.9 NW 7.6 0.0 0.0
09:09 17.6 15.6 88 1022.8 5.4 N 7.6 0.0 0.0
09:10 17.7 15.7 88 1022.6 3.1 NW 7.6 0.0 0.0
09:11 17.7 15.7 88 1022.7 3.8 NW 7.6 0.0 0.0
09:12 17.7 15.7 88 1022.6 3.1 NE 6.9 0.0 0.0
09:13 17.8 15.8 88 1022.8 3.8 NW 6.9 0.0 0.0
09:14 17.9 15.7 87 1022.7 3.8 NW 6.9 0.0 0.0
09:15 17.9 15.7 87 1022.8 4.5 N 6.9 0.0 0.0
09:16 17.9 15.7 87 1022.7 5.4 NW 6.9 0.0 0.0
09:17 18.0 15.8 87 1022.8 4.5 NW 6.9 0.0 0.0
09:18 18.1 15.9 87 1022.7 6.0 W 6.0 0.0 0.0
09:19 18.1 15.9 87 1022.7 6.0 W 6.0 0.0 0.0
09:20 18.1 15.9 87 1022.8 3.8 NE 6.0 0.0 0.0
09:21 18.2 16.0 87 1022.7 7.6 N 7.6 0.0 0.0
09:22 18.3 15.9 86 1022.5 6.9 NE 7.6 0.0 0.0
09:23 18.3 15.9 86 1022.5 6.0 NE 7.6 0.0 0.0
09:24 18.4 16.0 86 1022.5 6.0 NE 7.6 0.0 0.0
09:25 18.5 16.1 86 1022.5 4.5 N 7.6 0.0 0.0
09:26 18.5 15.9 85 1022.6 5.4 N 7.6 0.0 0.0
09:27 18.5 15.9 85 1022.5 7.6 N 7.6 0.0 0.0
09:29 18.7 16.0 84 1022.7 4.5 NW 7.6 0.0 0.0
09:30 18.8 16.1 84 1022.6 5.4 N 7.6 0.0 0.0
09:31 18.8 16.1 84 1022.5 4.5 NE 7.6 0.0 0.0
09:32 18.8 16.1 84 1022.5 5.4 NE 7.6 0.0 0.0
09:33 18.9 16.0 83 1022.6 5.4 NW 7.6 0.0 0.0
09:34 19.0 16.1 83 1022.6 3.1 N 7.6 0.0 0.0
09:35 19.0 16.1 83 1022.5 6.9 N 7.6 0.0 0.0
09:36 19.0 15.9 82 1022.6 5.4 S 7.6 0.0 0.0
09:37 19.1 16.0 82 1022.6 4.5 N 6.9 0.0 0.0
09:38 19.1 16.0 82 1022.6 5.4 NE 6.9 0.0 0.0
09:39 19.2 16.1 82 1022.6 4.5 ENE 6.9 0.0 0.0
09:40 19.2 15.9 81 1022.5 6.0 N 6.9 0.0 0.0
09:41 19.3 16.0 81 1022.4 7.6 NW 7.6 0.0 0.0
09:42 19.3 16.0 81 1022.5 6.0 NW 7.6 0.0 0.0
09:43 19.3 16.0 81 1022.6 6.9 NW 7.6 0.0 0.0
09:44 19.3 15.8 80 1022.6 6.9 NW 7.6 0.0 0.0
09:45 19.4 15.9 80 1022.7 6.9 N 7.6 0.0 0.0
09:46 19.5 15.8 79 1022.6 4.5 NW 7.6 0.0 0.0
09:47 19.5 15.8 79 1022.7 4.5 N 7.6 0.0 0.0
09:48 19.6 15.9 79 1022.7 6.0 N 7.6 0.0 0.0
09:49 19.6 15.9 79 1022.5 6.0 N 7.6 0.0 0.0
09:50 19.7 15.8 78 1022.7 3.1 NE 7.6 0.0 0.0
09:51 19.7 15.8 78 1022.6 3.1 NE 6.9 0.0 0.0
09:52 19.7 15.8 78 1022.6 5.4 SW 6.9 0.0 0.0
09:53 19.8 15.9 78 1022.5 4.5 NW 6.9 0.0 0.0
09:54 19.8 15.9 78 1022.5 4.5 N 6.9 0.0 0.0
09:55 19.8 15.9 78 1022.7 3.8 NW 6.9 0.0 0.0
09:56 19.9 15.8 77 1022.6 3.8 NW 6.0 0.0 0.0
09:57 19.9 15.8 77 1022.6 4.5 N 6.9 0.0 0.0
09:58 20.0 15.9 77 1022.6 8.3 N 8.3 0.0 0.0
09:59 20.0 15.9 77 1022.7 3.1 NE 8.3 0.0 0.0
10:00 20.0 15.9 77 1022.5 8.3 N 8.3 0.0 0.0
10:01 20.1 16.0 77 1022.5 5.4 N 8.3 0.0 0.0
10:02 20.1 15.8 76 1022.6 4.5 N 8.3 0.0 0.0
10:03 20.1 15.8 76 1022.5 4.5 NE 8.3 0.0 0.0
10:04 20.4 16.0 76 1022.6 6.0 NW 8.3 0.0 0.0
10:05 20.2 15.8 76 1022.5 6.9 N 8.3 0.0 0.0
10:06 20.2 15.6 75 1022.5 6.0 NW 8.3 0.0 0.0
10:07 20.3 15.7 75 1022.5 3.8 NW 8.3 0.0 0.0
10:08 20.3 15.7 75 1022.7 3.1 N 8.3 0.0 0.0
10:09 20.3 15.7 75 1022.5 4.5 NW 8.3 0.0 0.0
10:10 20.4 15.6 74 1022.7 6.9 N 7.6 0.0 0.0
10:11 20.4 15.6 74 1022.7 6.9 N 7.6 0.0 0.0
10:12 20.4 15.4 73 1022.6 5.4 W 7.6 0.0 0.0
10:13 20.4 15.4 73 1022.8 7.6 NW 7.6 0.0 0.0
10:14 20.4 15.2 72 1022.6 6.9 N 7.6 0.0 0.0
10:15 20.4 15.2 72 1022.8 6.9 WNW 7.6 0.0 0.0
10:16 20.4 15.4 73 1022.7 6.0 NW 7.6 0.0 0.0
10:17 20.5 15.3 72 1022.8 6.0 SSW 7.6 0.0 0.0
10:18 20.5 15.3 72 1022.7 7.6 NW 7.6 0.0 0.0
10:19 20.5 15.3 72 1022.7 7.6 NW 7.6 0.0 0.0
10:20 20.5 15.3 72 1022.6 4.5 NE 7.6 0.0 0.0
10:21 20.6 15.4 72 1022.7 5.4 ESE 7.6 0.0 0.0
10:22 20.6 15.4 72 1022.7 4.5 NW 7.6 0.0 0.0
10:23 20.6 15.4 72 1022.8 7.6 NW 7.6 0.0 0.0
10:24 20.7 15.3 71 1022.7 6.0 NW 7.6 0.0 0.0
10:25 20.7 15.3 71 1022.8 5.4 NW 7.6 0.0 0.0
10:26 20.7 15.0 70 1022.7 4.5 N 7.6 0.0 0.0
10:27 20.7 15.0 70 1022.8 3.8 NE 7.6 0.0 0.0
10:28 20.7 15.0 70 1022.7 4.5 N 7.6 0.0 0.0
10:29 20.7 15.0 70 1022.7 5.4 E 7.6 0.0 0.0
10:30 20.7 15.0 70 1022.8 5.4 N 7.6 0.0 0.0
10:31 20.8 15.1 70 1022.8 3.8 W 7.6 0.0 0.0
10:32 20.8 14.9 69 1022.8 4.5 NW 7.6 0.0 0.0
10:33 20.8 14.7 68 1022.7 2.2 W 7.6 0.0 0.0
10:34 20.9 14.8 68 1022.7 7.6 N 7.6 0.0 0.0
10:35 20.9 14.8 68 1022.9 5.4 NW 7.6 0.0 0.0
10:36 20.9 14.6 67 1022.8 6.9 NW 8.3 0.0 0.0
10:37 20.9 14.3 66 1022.8 6.9 WSW 8.3 0.0 0.0
10:38 20.9 14.6 67 1022.8 7.6 NW 8.3 0.0 0.0
10:39 20.9 14.6 67 1022.8 8.3 NW 8.3 0.0 0.0
10:40 20.9 14.6 67 1022.7 8.3 W 8.3 0.0 0.0
10:41 20.9 14.3 66 1022.8 6.0 W 8.3 0.0 0.0
10:42 21.0 14.4 66 1022.8 8.3 N 8.3 0.0 0.0
10:43 21.0 14.4 66 1022.8 4.5 N 8.3 0.0 0.0
10:44 21.1 14.5 66 1022.9 3.1 N 8.3 0.0 0.0
10:45 21.1 14.3 65 1022.8 9.2 NE 9.2 0.0 0.0
10:46 21.1 14.3 65 1022.8 5.4 SW 9.2 0.0 0.0
10:47 21.1 14.3 65 1022.9 5.4 NW 9.2 0.0 0.0
10:48 21.2 14.1 64 1022.8 8.3 N 9.2 0.0 0.0
10:49 21.2 14.4 65 1022.8 6.9 WSW 9.2 0.0 0.0
10:50 21.3 14.2 64 1022.9 9.8 NW 9.8 0.0 0.0
10:51 21.3 14.2 64 1022.8 5.4 SE 9.8 0.0 0.0
10:52 21.3 14.0 63 1022.8 5.4 N 9.8 0.0 0.0
10:53 21.3 14.0 63 1022.9 6.9 N 9.8 0.0 0.0
10:54 21.5 14.4 64 1022.8 3.8 NW 9.8 0.0 0.0
10:55 21.5 14.4 64 1022.9 3.8 N 9.8 0.0 0.0
10:56 21.6 14.3 63 1022.9 4.5 NW 9.8 0.0 0.0
10:57 21.7 14.4 63 1023.0 7.6 NW 9.8 0.0 0.0
10:58 21.7 14.1 62 1022.8 4.5 N 9.8 0.0 0.0
10:59 21.7 14.1 62 1022.8 3.1 N 9.8 0.0 0.0
11:00 21.8 14.5 63 1022.9 6.0 N 7.6 0.0 0.0
11:01 21.8 14.5 63 1023.0 6.0 N 7.6 0.0 0.0
11:02 21.9 14.1 61 1022.9 9.2 NW 9.2 0.0 0.0
11:03 21.9 13.8 60 1022.9 5.4 N 9.2 0.0 0.0
11:04 21.9 13.8 60 1023.0 6.0 N 9.2 0.0 0.0
11:05 21.9 14.1 61 1022.8 6.0 N 9.2 0.0 0.0
11:06 22.0 14.1 61 1023.0 5.4 E 9.2 0.0 0.0
11:07 22.0 14.4 62 1022.8 3.8 E 9.2 0.0 0.0
11:08 22.1 14.0 60 1023.0 7.6 NW 9.2 0.0 0.0
11:09 22.1 14.0 60 1022.9 7.6 NW 9.2 0.0 0.0
11:10 22.1 14.2 61 1023.0 5.4 N 9.2 0.0 0.0
11:11 22.1 14.5 62 1022.9 4.5 NW 9.2 0.0 0.0
11:12 22.2 14.3 61 1023.0 6.9 W 9.2 0.0 0.0
11:13 22.3 13.9 59 1022.9 9.8 N 9.8 0.0 0.0
11:14 22.3 14.2 60 1022.8 6.0 W 9.8 0.0 0.0
11:15 22.3 14.2 60 1022.9 6.0 WNW 9.8 0.0 0.0
11:16 22.3 14.2 60 1023.0 6.9 E 9.8 0.0 0.0
11:17 22.3 14.2 60 1022.8 8.3 WNW 9.8 0.0 0.0
11:18 22.3 13.9 59 1022.8 7.6 NE 9.8 0.0 0.0
11:19 22.4 14.0 59 1022.8 4.5 N 9.8 0.0 0.0
11:20 22.4 14.3 60 1022.9 4.5 NW 9.8 0.0 0.0
11:21 22.5 14.6 61 1022.8 6.0 N 9.8 0.0 0.0
11:22 22.6 15.0 62 1022.9 4.5 NW 9.8 0.0 0.0
11:23 22.6 15.0 62 1022.9 4.5 NW 9.8 0.0 0.0
11:24 22.7 15.1 62 1022.8 5.4 NW 8.3 0.0 0.0
11:25 22.8 14.9 61 1023.0 4.5 N 8.3 0.0 0.0
11:26 22.9 14.7 60 1022.8 4.5 N 8.3 0.0 0.0
11:27 22.9 14.7 60 1023.0 6.0 NW 8.3 0.0 0.0
11:28 22.9 14.5 59 1022.9 10.7 N 10.7 0.0 0.0
11:29 22.9 14.5 59 1023.0 7.6 NW 10.7 0.0 0.0
11:30 22.9 15.0 61 1022.9 4.5 NW 10.7 0.0 0.0
11:31 22.9 14.7 60 1023.0 4.5 N 10.7 0.0 0.0
11:32 23.0 14.8 60 1022.9 9.2 NW 10.7 0.0 0.0
11:33 22.9 14.7 60 1022.9 4.5 N 10.7 0.0 0.0
11:34 22.9 14.7 60 1022.9 6.0 N 10.7 0.0 0.0
11:35 22.9 14.7 60 1023.0 5.4 NW 10.7 0.0 0.0
11:36 22.9 14.7 60 1022.9 6.9 NW 10.7 0.0 0.0
11:37 22.9 14.5 59 1022.8 6.9 NW 10.7 0.0 0.0
11:38 22.9 14.5 59 1023.1 6.9 NW 9.8 0.0 0.0
11:39 22.9 14.5 59 1023.0 7.6 WNW 9.8 0.0 0.0
11:40 22.9 14.5 59 1023.0 7.6 WNW 9.8 0.0 0.0
11:41 22.8 14.4 59 1023.0 5.4 NW 9.8 0.0 0.0
11:42 22.8 14.4 59 1023.2 4.5 NW 9.8 0.0 0.0
11:43 22.9 14.2 58 1022.9 7.6 NE 9.8 0.0 0.0
11:44 22.8 14.1 58 1023.1 5.4 NW 9.8 0.0 0.0
11:45 22.8 14.1 58 1023.0 3.1 N 9.8 0.0 0.0
11:46 22.9 14.2 58 1023.0 9.2 W 9.8 0.0 0.0
11:47 22.8 13.9 57 1022.9 8.3 N 9.8 0.0 0.0
11:48 22.8 14.1 58 1023.0 11.4 N 11.4 0.0 0.0
11:50 22.8 13.9 57 1023.1 7.6 N 11.4 0.0 0.0
11:51 22.8 13.9 57 1023.0 3.8 S 11.4 0.0 0.0
11:52 22.8 13.9 57 1023.1 4.5 NW 11.4 0.0 0.0
11:53 22.9 13.7 56 1023.1 9.2 NE 11.4 0.0 0.0
11:54 22.9 13.7 56 1023.2 8.3 NW 11.4 0.0 0.0
11:55 22.9 13.4 55 1023.1 8.3 NW 11.4 0.0 0.0
11:56 22.8 13.3 55 1023.1 7.6 NW 11.4 0.0 0.0
11:57 22.8 13.9 57 1023.1 4.5 N 11.4 0.0 0.0
11:58 22.8 13.9 57 1023.1 4.5 N 11.4 0.0 0.0
11:59 22.8 13.9 57 1023.2 7.6 N 9.2 0.0 0.0
12:00 22.8 14.1 58 1023.2 7.6 NW 9.2 0.0 0.0
12:01 22.8 13.9 57 1023.2 8.3 NW 9.2 0.0 0.0
12:02 22.8 13.9 57 1023.1 5.4 WNW 9.2 0.0 0.0
12:03 22.8 13.9 57 1023.1 9.2 W 9.2 0.0 0.0
12:04 22.8 13.9 57 1023.2 6.9 NW 9.2 0.0 0.0
12:05 22.8 14.1 58 1023.3 4.5 NE 9.2 0.0 0.0
12:06 22.9 14.2 58 1023.2 6.0 W 9.2 0.0 0.0
12:07 23.0 14.3 58 1023.2 6.0 N 9.2 0.0 0.0
12:08 23.0 14.0 57 1023.1 9.2 NW 9.2 0.0 0.0
12:09 23.0 13.8 56 1023.1 9.2 WNW 9.2 0.0 0.0
12:10 23.0 14.3 58 1023.0 5.4 NNE 9.2 0.0 0.0
12:11 23.0 14.0 57 1023.0 6.0 WSW 9.2 0.0 0.0
12:12 23.0 14.0 57 1023.2 6.9 SW 9.2 0.0 0.0
12:13 23.0 14.0 57 1023.0 7.6 NW 9.2 0.0 0.0
12:14 23.0 14.0 57 1023.0 7.6 NW 9.2 0.0 0.0
12:15 23.0 14.0 57 1023.0 6.0 NW 9.2 0.0 0.0
12:16 23.0 13.8 56 1023.0 9.2 WNW 9.8 0.0 0.0
12:17 22.9 13.4 55 1023.0 8.3 NW 9.8 0.0 0.0
12:18 22.9 13.7 56 1023.1 8.3 N 9.8 0.0 0.0
12:19 23.0 13.8 56 1023.1 7.6 N 9.8 0.0 0.0
12:20 22.9 13.7 56 1023.0 6.0 NW 9.8 0.0 0.0
12:21 22.9 13.4 55 1022.9 7.6 WNW 9.8 0.0 0.0
12:22 22.9 13.4 55 1023.0 8.3 WNW 9.8 0.0 0.0
12:23 22.9 13.7 56 1023.1 7.6 SW 9.8 0.0 0.0
12:24 23.0 14.0 57 1023.0 3.8 NW 9.8 0.0 0.0
12:25 23.1 13.9 56 1023.1 9.2 W 9.8 0.0 0.0
12:26 23.1 13.6 55 1023.1 9.2 W 9.2 0.0 0.0
12:27 23.2 13.7 55 1023.0 9.2 SW 9.2 0.0 0.0
12:28 23.1 13.6 55 1023.1 7.6 N 9.2 0.0 0.0
12:29 23.2 14.0 56 1023.1 6.9 NW 9.2 0.0 0.0
12:30 23.2 14.0 56 1023.1 6.9 NW 9.2 0.0 0.0
12:31 23.2 14.0 56 1023.1 6.9 NE 9.2 0.0 0.0
12:32 23.3 14.0 56 1023.0 8.3 W 9.2 0.0 0.0
12:33 23.3 13.8 55 1023.0 9.8 NW 9.8 0.0 0.0
12:34 23.3 13.8 55 1023.0 7.6 W 9.8 0.0 0.0
12:35 23.3 13.5 54 1023.0 9.2 NW 9.8 0.0 0.0
12:36 23.2 13.7 55 1023.1 6.0 NW 9.8 0.0 0.0
12:37 23.2 13.7 55 1023.1 6.0 NE 9.8 0.0 0.0
12:38 23.2 14.0 56 1023.0 3.8 N 9.8 0.0 0.0
12:39 23.3 13.8 55 1023.1 9.8 NW 9.8 0.0 0.0
12:40 23.3 13.8 55 1023.0 9.2 NW 9.8 0.0 0.0
12:41 23.3 14.0 56 1023.0 10.7 N 10.7 0.0 0.0
12:42 23.3 14.0 56 1023.2 9.2 NW 10.7 0.0 0.0
12:43 23.3 14.0 56 1023.1 7.6 W 10.7 0.0 0.0
12:44 23.2 13.7 55 1023.0 9.2 W 10.7 0.0 0.0
12:45 23.2 14.0 56 1023.2 9.2 SSW 10.7 0.0 0.0
12:46 23.2 14.5 58 1023.0 6.0 NW 10.7 0.0 0.0
12:47 23.2 14.5 58 1023.0 6.0 NW 10.7 0.0 0.0
12:48 23.3 14.0 56 1023.1 8.3 SE 10.7 0.0 0.0
12:49 23.3 14.0 56 1023.0 8.3 N 10.7 0.0 0.0
12:50 23.3 14.0 56 1023.0 6.0 W 10.7 0.0 0.0
12:51 23.4 13.9 55 1023.0 6.9 N 10.7 0.0 0.0
12:52 23.4 13.9 55 1023.0 8.3 NW 10.7 0.0 0.0
12:53 23.4 14.1 56 1023.1 7.6 N 10.7 0.0 0.0
12:54 23.3 13.8 55 1023.2 6.0 N 10.7 0.0 0.0
12:55 23.3 13.5 54 1023.1 6.0 W 10.7 0.0 0.0
12:56 23.2 13.4 54 1023.0 7.6 NW 8.3 0.0 0.0
12:57 23.1 13.3 54 1023.0 9.8 W 9.8 0.0 0.0
12:58 23.1 13.3 54 1023.0 9.2 W 9.8 0.0 0.0
12:59 23.0 13.5 55 1023.1 8.3 N 9.8 0.0 0.0
13:00 23.0 14.0 57 1023.2 5.4 NW 9.8 0.0 0.0
13:01 23.2 13.7 55 1023.3 11.4 W 11.4 0.0 0.0
13:02 23.3 13.8 55 1023.2 6.9 ENE 11.4 0.0 0.0
13:03 23.3 13.8 55 1023.3 7.6 NE 11.4 0.0 0.0
13:04 23.4 14.1 56 1023.3 4.5 N 11.4 0.0 0.0
13:05 23.5 14.0 55 1023.3 7.6 SW 11.4 0.0 0.0
13:06 23.6 14.0 55 1023.2 6.0 N 11.4 0.0 0.0
13:07 23.6 14.0 55 1023.2 7.6 N 11.4 0.0 0.0
13:08 23.7 14.1 55 1023.2 9.8 SSE 11.4 0.0 0.0
13:09 23.7 14.1 55 1023.2 7.6 SSE 11.4 0.0 0.0
13:10 23.7 13.9 54 1023.2 6.9 SW 11.4 0.0 0.0
13:11 23.8 14.0 54 1023.2 6.9 SW 11.4 0.0 0.0
13:12 23.8 14.2 55 1023.3 6.9 W 9.8 0.0 0.0
13:13 23.8 13.7 53 1023.1 9.8 N 9.8 0.0 0.0
13:14 23.8 13.7 53 1023.2 6.0 SE 9.8 0.0 0.0
13:15 23.9 14.0 54 1023.2 5.4 NW 9.8 0.0 0.0
13:17 23.9 13.5 52 1023.1 6.9 NW 10.7 0.0 0.0
13:18 23.9 13.8 53 1023.1 6.0 N 10.7 0.0 0.0
13:19 23.9 13.8 53 1023.2 7.6 N 10.7 0.0 0.0
13:20 23.9 14.0 54 1023.1 9.2 S 10.7 0.0 0.0
13:21 24.0 14.1 54 1023.1 4.5 N 10.7 0.0 0.0
13:22 24.1 13.9 53 1023.1 8.3 W 10.7 0.0 0.0
13:23 24.1 13.6 52 1023.1 4.5 SW 10.7 0.0 0.0
13:24 24.1 13.6 52 1023.1 4.5 SW 10.7 0.0 0.0
13:25 24.1 13.6 52 1023.0 4.5 W 10.7 0.0 0.0
13:26 24.2 14.0 53 1022.8 6.0 W 10.7 0.0 0.0
13:27 24.1 13.6 52 1023.0 7.6 N 9.2 0.0 0.0
13:28 24.1 13.6 52 1022.9 7.6 NW 9.2 0.0 0.0
13:29 24.0 12.6 49 1023.0 11.4 NW 11.4 0.0 0.0
13:30 23.9 12.6 49 1022.9 9.8 NW 11.4 0.0 0.0
13:31 23.8 12.8 50 1023.0 7.6 W 11.4 0.0 0.0
13:33 23.6 12.9 51 1023.0 6.9 NE 11.4 0.0 0.0
13:34 23.7 13.3 52 1023.0 6.9 N 11.4 0.0 0.0
13:35 23.7 13.0 51 1023.1 6.0 NE 11.4 0.0 0.0
13:36 23.7 13.3 52 1023.1 6.9 NW 11.4 0.0 0.0
13:37 23.7 12.7 50 1022.9 12.1 NW 12.1 0.0 0.0
13:38 23.7 13.3 52 1023.0 6.9 N 12.1 0.0 0.0
13:39 23.7 13.0 51 1023.0 6.9 NE 12.1 0.0 0.0
13:40 23.7 13.0 51 1023.0 6.9 NE 12.1 0.0 0.0
13:41 23.9 12.9 50 1022.9 9.2 WSW 12.1 0.0 0.0
13:42 23.9 12.9 50 1022.9 7.6 NW 12.1 0.0 0.0
13:43 23.9 12.6 49 1023.0 6.0 W 12.1 0.0 0.0
13:44 23.9 12.9 50 1023.1 6.9 N 12.1 0.0 0.0
13:45 23.9 12.9 50 1023.0 9.2 NW 12.1 0.0 0.0
13:46 23.9 12.9 50 1023.1 7.6 NW 12.1 0.0 0.0
13:47 23.9 13.2 51 1023.1 8.3 W 12.1 0.0 0.0
13:49 24.0 12.6 49 1023.1 7.6 W 9.8 0.0 0.0
13:50 23.9 12.6 49 1023.1 6.9 NW 9.8 0.0 0.0
13:51 23.9 12.6 49 1023.0 9.8 W 9.8 0.0 0.0
13:52 23.8 12.5 49 1023.0 7.6 NW 9.8 0.0 0.0
13:53 23.8 12.8 50 1023.2 6.0 NE 9.8 0.0 0.0
13:54 23.9 13.5 52 1023.1 6.0 SW 9.8 0.0 0.0
13:55 23.9 13.2 51 1023.1 6.9 NW 9.8 0.0 0.0
13:56 24.0 13.3 51 1022.9 6.9 S 9.8 0.0 0.0
13:57 24.1 13.3 51 1023.3 4.5 NW 9.8 0.0 0.0
13:58 24.1 13.3 51 1023.0 3.1 NE 9.8 0.0 0.0
13:59 24.2 13.4 51 1023.1 8.3 NW 9.8 0.0 0.0
14:00 24.3 12.9 49 1023.1 8.3 NW 9.8 0.0 0.0
14:01 24.3 13.2 50 1023.2 6.0 SW 9.8 0.0 0.0
14:02 24.4 13.6 51 1023.2 6.9 NW 8.3 0.0 0.0
14:03 24.4 13.0 49 1023.2 7.6 S 8.3 0.0 0.0
14:04 24.3 12.6 48 1023.2 9.2 NW 9.8 0.0 0.0
14:06 24.1 12.7 49 1023.2 6.0 NW 9.8 0.0 0.0
14:07 24.0 12.6 49 1023.1 9.8 N 9.8 0.0 0.0
14:08 24.0 13.0 50 1023.3 7.6 W 9.8 0.0 0.0
14:09 24.0 12.6 49 1023.2 9.2 NW 9.8 0.0 0.0
14:10 24.0 13.0 50 1023.0 10.7 NW 11.4 0.0 0.0
14:11 24.0 13.0 50 1023.1 9.2 NW 11.4 0.0 0.0
14:12 24.0 12.6 49 1023.0 7.6 N 11.4 0.0 0.0
14:13 23.9 12.6 49 1023.2 10.7 NW 11.4 0.0 0.0
14:14 23.9 12.6 49 1023.2 7.6 NW 11.4 0.0 0.0
14:15 23.8 12.5 49 1023.3 5.4 NW 11.4 0.0 0.0
14:16 23.8 12.8 50 1023.2 8.3 E 11.4 0.0 0.0
14:17 23.9 12.9 50 1023.2 6.0 E 11.4 0.0 0.0
14:18 23.9 12.6 49 1023.2 7.6 NW 11.4 0.0 0.0
14:19 24.0 12.3 48 1023.4 7.6 NE 11.4 0.0 0.0
14:20 24.0 12.3 48 1023.4 7.6 NW 11.4 0.0 0.0
14:22 24.1 12.7 49 1023.2 4.5 NW 10.7 0.0 0.0
14:23 24.1 13.0 50 1023.3 6.0 W 10.7 0.0 0.0
14:24 24.1 13.0 50 1023.1 4.5 N 10.7 0.0 0.0
14:25 24.2 12.8 49 1023.2 6.0 WNW 10.7 0.0 0.0
14:26 24.3 13.2 50 1023.3 6.0 NW 10.7 0.0 0.0
14:27 24.3 12.9 49 1023.2 6.0 NW 10.7 0.0 0.0
14:28 24.3 13.2 50 1023.3 6.0 N 10.7 0.0 0.0
14:29 24.4 13.3 50 1023.3 6.9 WNW 10.7 0.0 0.0
14:30 24.4 13.0 49 1023.1 9.8 WNW 10.7 0.0 0.0
14:31 24.4 12.7 48 1023.1 5.4 N 9.8 0.0 0.0
14:32 24.3 12.9 49 1023.3 4.5 NW 9.8 0.0 0.0
14:33 24.4 13.3 50 1023.3 4.5 W 9.8 0.0 0.0
14:34 24.5 13.7 51 1023.2 4.5 E 9.8 0.0 0.0
14:35 24.5 12.8 48 1023.3 8.3 W 9.8 0.0 0.0
14:36 24.5 12.8 48 1023.1 8.3 W 9.8 0.0 0.0
14:37 24.5 13.1 49 1023.2 8.3 NW 9.8 0.0 0.0
14:39 24.5 12.8 48 1023.3 9.8 W 9.8 0.0 0.0
14:40 24.4 12.4 47 1023.3 7.6 NW 9.8 0.0 0.0
14:41 24.3 12.6 48 1023.3 6.0 NW 9.8 0.0 0.0
14:42 24.3 12.6 48 1023.2 12.1 NW 12.1 0.0 0.0
14:43 24.3 12.6 48 1023.2 7.6 NW 12.1 0.0 0.0
14:44 24.3 12.6 48 1023.3 6.9 NW 12.1 0.0 0.0
14:45 24.3 12.6 48 1023.0 6.9 SW 12.1 0.0 0.0
14:46 24.3 13.2 50 1023.0 9.8 W 12.1 0.0 0.0
14:47 24.3 12.6 48 1023.3 9.8 NW 12.1 0.0 0.0
14:48 24.3 12.9 49 1023.2 6.9 SW 12.1 0.0 0.0
14:49 24.4 13.3 50 1023.1 6.9 NW 12.1 0.0 0.0
14:50 24.4 13.3 50 1023.0 9.8 N 12.1 0.0 0.0
14:51 24.4 13.0 49 1023.2 6.0 NW 12.1 0.0 0.0
14:52 24.6 12.2 46 1023.0 7.6 W 12.1 0.0 0.0
14:53 24.5 12.1 46 1023.1 6.0 SW 9.8 0.0 0.0
14:54 24.5 12.5 47 1023.3 7.6 NW 9.8 0.0 0.0
14:56 24.5 12.8 48 1023.2 7.6 N 9.8 0.0 0.0
14:57 24.5 13.1 49 1023.1 5.4 NW 9.8 0.0 0.0
14:58 24.6 13.2 49 1023.1 8.3 NW 9.8 0.0 0.0
14:59 24.6 12.6 47 1023.2 6.9 NW 9.8 0.0 0.0
15:00 24.6 12.6 47 1023.1 4.5 NE 8.3 0.0 0.0
15:01 24.6 12.6 47 1023.2 7.6 W 8.3 0.0 0.0
15:02 24.6 12.6 47 1023.1 7.6 W 8.3 0.0 0.0
15:03 24.6 12.6 47 1023.1 7.6 W 8.3 0.0 0.0
15:04 24.5 12.5 47 1023.2 6.9 N 8.3 0.0 0.0
15:05 24.5 12.8 48 1023.2 7.6 SE 8.3 0.0 0.0
15:06 24.5 12.8 48 1023.1 7.6 NW 8.3 0.0 0.0
15:07 24.5 12.5 47 1023.3 4.5 NW 8.3 0.0 0.0
15:08 24.6 12.9 48 1023.1 7.6 NE 8.3 0.0 0.0
15:09 24.6 12.6 47 1022.9 5.4 W 7.6 0.0 0.0
15:10 24.6 12.6 47 1023.0 7.6 N 7.6 0.0 0.0
15:11 24.6 12.6 47 1023.1 7.6 NW 7.6 0.0 0.0
15:12 24.6 12.9 48 1022.9 9.2 NW 9.2 0.0 0.0
15:13 24.7 12.6 47 1023.0 7.6 NW 9.2 0.0 0.0
15:14 24.6 12.6 47 1023.0 6.0 NW 9.2 0.0 0.0
15:15 24.6 12.9 48 1023.1 4.5 W 9.2 0.0 0.0
15:16 24.7 12.6 47 1023.1 6.0 W 9.2 0.0 0.0
15:18 24.7 13.0 48 1023.1 7.6 NW 9.2 0.0 0.0
15:19 24.8 12.7 47 1023.2 10.7 NW 10.7 0.0 0.0
15:20 24.8 12.7 47 1023.0 8.3 N 10.7 0.0 0.0
15:21 24.8 12.4 46 1023.2 4.5 SW 10.7 0.0 0.0
15:22 24.8 12.4 46 1023.0 7.6 S 10.7 0.0 0.0
15:23 24.7 12.3 46 1023.0 11.4 W 11.4 0.0 0.0
15:24 24.7 12.3 46 1023.0 8.3 NW 11.4 0.0 0.0
15:25 24.7 12.3 46 1023.0 11.4 NW 11.4 0.0 0.0
15:26 24.7 12.3 46 1023.0 6.9 NW 11.4 0.0 0.0
15:27 24.7 12.3 46 1023.1 7.6 NW 11.4 0.0 0.0
15:28 24.6 12.6 47 1023.1 6.9 NW 11.4 0.0 0.0
15:29 24.7 13.0 48 1022.9 6.0 NW 11.4 0.0 0.0
15:30 24.7 13.0 48 1023.0 4.5 NW 11.4 0.0 0.0
15:31 24.8 13.1 48 1023.0 6.9 NE 11.4 0.0 0.0
15:32 24.9 12.8 47 1023.0 8.3 W 11.4 0.0 0.0
15:33 24.9 12.5 46 1023.3 6.9 SW 11.4 0.0 0.0
15:34 24.8 12.1 45 1023.2 9.8 N 11.4 0.0 0.0
15:36 24.7 12.6 47 1023.0 4.5 NW 9.8 0.0 0.0
15:37 24.6 11.9 45 1023.1 8.3 NW 9.8 0.0 0.0
15:38 24.6 12.6 47 1023.0 8.3 NW 9.8 0.0 0.0
15:39 24.6 12.6 47 1022.9 8.3 N 9.8 0.0 0.0
15:40 24.6 12.9 48 1022.9 6.0 NW 9.8 0.0 0.0
15:41 24.7 12.6 47 1022.9 7.6 E 9.8 0.0 0.0
15:42 24.7 13.0 48 1023.0 9.8 W 9.8 0.0 0.0
15:43 24.7 13.0 48 1023.0 9.8 W 9.8 0.0 0.0
15:44 24.8 13.1 48 1022.9 5.4 NW 9.8 0.0 0.0
15:45 24.9 12.8 47 1023.0 8.3 W 9.8 0.0 0.0
15:46 24.9 12.5 46 1023.0 5.4 N 9.8 0.0 0.0
15:47 24.9 12.5 46 1023.1 8.3 NW 9.8 0.0 0.0
15:48 24.8 12.4 46 1023.2 9.8 S 9.8 0.0 0.0
15:49 24.8 12.4 46 1022.9 5.4 N 9.8 0.0 0.0
15:50 24.8 12.4 46 1022.9 9.8 N 9.8 0.0 0.0
15:51 24.7 12.0 45 1022.9 9.8 NW 9.8 0.0 0.0
15:52 24.7 12.6 47 1023.1 6.0 N 9.8 0.0 0.0
15:54 24.7 12.6 47 1022.8 7.6 W 9.8 0.0 0.0
15:55 24.7 12.3 46 1022.9 10.7 E 10.7 0.0 0.0
15:56 24.6 12.2 46 1022.9 8.3 N 10.7 0.0 0.0
15:57 24.6 11.9 45 1022.9 9.8 NW 10.7 0.0 0.0
15:58 24.5 12.1 46 1022.9 5.4 WNW 10.7 0.0 0.0
15:59 24.5 12.1 46 1022.8 5.4 WNW 10.7 0.0 0.0
16:00 24.5 12.1 46 1022.8 5.4 WNW 10.7 0.0 0.0
16:01 24.5 12.5 47 1022.8 9.2 N 10.7 0.0 0.0
16:02 24.5 12.8 48 1022.8 6.0 WNW 10.7 0.0 0.0
16:03 24.6 12.6 47 1022.8 8.3 ESE 10.7 0.0 0.0
16:04 24.7 12.6 47 1022.8 6.9 SSW 10.7 0.0 0.0
16:05 24.8 12.7 47 1022.8 6.9 NE 10.7 0.0 0.0
16:06 24.8 12.4 46 1022.9 9.2 NW 10.7 0.0 0.0
16:07 24.8 12.4 46 1022.9 9.2 SW 10.7 0.0 0.0
16:08 24.9 12.5 46 1022.9 5.4 NE 9.2 0.0 0.0
16:09 24.8 12.4 46 1022.9 6.0 NE 9.2 0.0 0.0
16:10 24.9 12.2 45 1022.9 11.4 N 11.4 0.0 0.0
16:12 24.8 12.4 46 1022.9 6.0 S 11.4 0.0 0.0
16:13 24.9 12.5 46 1022.8 11.4 WNW 11.4 0.0 0.0
16:14 24.9 12.2 45 1022.9 9.2 NE 11.4 0.0 0.0
16:15 24.8 12.1 45 1022.8 8.3 N 11.4 0.0 0.0
16:16 24.8 12.4 46 1022.9 4.5 N 11.4 0.0 0.0
16:17 24.9 12.8 47 1022.9 6.9 WNW 11.4 0.0 0.0
16:18 24.9 12.5 46 1022.6 12.1 W 12.1 0.0 0.0
16:19 24.9 12.5 46 1022.6 12.1 W 12.1 0.0 0.0
16:20 24.9 12.5 46 1022.9 9.8 NW 12.1 0.0 0.0
16:21 24.9 12.5 46 1022.8 6.0 NW 12.1 0.0 0.0
16:22 24.9 12.5 46 1022.8 7.6 W 12.1 0.0 0.0
16:23 24.9 12.5 46 1022.8 6.9 NW 12.1 0.0 0.0
16:24 25.0 12.6 46 1022.8 6.0 NW 12.1 0.0 0.0
16:25 25.0 12.6 46 1022.7 8.3 N 12.1 0.0 0.0
16:26 24.9 12.5 46 1022.8 8.3 WNW 12.1 0.0 0.0
16:27 24.9 12.2 45 1022.8 6.0 N 12.1 0.0 0.0
16:28 24.8 12.4 46 1022.8 8.3 NW 12.1 0.0 0.0
16:30 24.7 12.3 46 1022.9 6.0 NW 10.7 0.0 0.0
16:31 24.7 12.6 47 1022.7 5.4 NE 10.7 0.0 0.0
16:32 24.8 12.7 47 1022.9 3.1 SE 10.7 0.0 0.0
16:33 24.8 12.4 46 1022.8 6.0 SE 10.7 0.0 0.0
16:34 24.8 12.4 46 1022.8 5.4 NW 10.7 0.0 0.0
16:35 24.9 12.8 47 1022.7 6.0 NE 10.7 0.0 0.0
16:36 24.9 12.8 47 1022.8 5.4 N 10.7 0.0 0.0
16:37 25.0 12.9 47 1022.6 5.4 NW 10.7 0.0 0.0
16:38 25.0 12.6 46 1022.6 4.5 NW 9.8 0.0 0.0
16:39 25.1 13.0 47 1022.6 6.9 NW 9.8 0.0 0.0
16:40 25.1 13.0 47 1022.6 6.9 NW 9.8 0.0 0.0
16:41 25.1 13.3 48 1022.7 5.4 NW 9.8 0.0 0.0
16:42 25.2 12.8 46 1022.6 12.1 NW 12.1 0.0 0.0
16:43 25.2 13.1 47 1022.7 6.0 N 12.1 0.0 0.0
16:44 25.1 12.7 46 1022.7 7.6 NW 12.1 0.0 0.0
16:45 25.1 12.7 46 1022.7 11.4 N 12.1 0.0 0.0
16:46 25.1 12.7 46 1022.8 6.9 WNW 12.1 0.0 0.0
16:47 25.1 12.4 45 1022.6 7.6 NE 12.1 0.0 0.0
16:49 25.1 12.4 45 1022.6 9.8 NE 12.1 0.0 0.0
16:50 25.0 12.6 46 1022.6 6.0 NW 12.1 0.0 0.0
16:51 25.0 12.6 46 1022.6 6.0 N 12.1 0.0 0.0
16:52 25.0 12.3 45 1022.7 9.8 NW 11.4 0.0 0.0
16:53 24.8 12.4 46 1022.7 6.9 SE 11.4 0.0 0.0
16:54 24.8 12.4 46 1022.6 8.3 SW 11.4 0.0 0.0
16:55 24.7 12.3 46 1022.5 4.5 NE 9.8 0.0 0.0
16:56 24.7 12.6 47 1022.6 4.5 E 9.8 0.0 0.0
16:57 24.7 12.3 46 1022.6 8.3 N 9.8 0.0 0.0
16:58 24.7 12.3 46 1022.6 5.4 NW 9.8 0.0 0.0
16:59 24.8 12.4 46 1022.6 6.9 W 9.8 0.0 0.0
17:00 24.8 12.4 46 1022.6 6.9 W 9.8 0.0 0.0
17:01 24.8 12.4 46 1022.6 3.8 WNW 9.8 0.0 0.0
17:02 24.8 12.4 46 1022.7 9.2 NW 9.8 0.0 0.0
17:03 24.8 12.7 47 1022.7 4.5 NW 9.2 0.0 0.0
17:04 24.8 13.1 48 1022.6 6.9 NW 9.2 0.0 0.0
17:05 24.8 12.7 47 1022.6 7.6 W 9.2 0.0 0.0
17:06 24.8 12.7 47 1022.5 6.9 N 9.2 0.0 0.0
17:08 24.8 13.1 48 1022.6 6.0 NW 9.2 0.0 0.0
17:09 24.8 12.4 46 1022.6 7.6 NW 9.2 0.0 0.0
17:10 24.7 12.3 46 1022.6 6.9 NW 9.2 0.0 0.0
17:13 24.5 12.5 47 1022.7 7.6 W 7.6 0.0 0.0
17:14 24.5 12.5 47 1022.6 8.3 W 8.3 0.0 0.0
17:15 24.4 12.7 48 1022.5 5.4 W 8.3 0.0 0.0
17:16 24.5 12.8 48 1022.6 9.2 NW 9.2 0.0 0.0
17:17 24.5 12.5 47 1022.5 6.9 W 9.2 0.0 0.0
17:18 24.5 12.5 47 1022.5 6.9 W 9.2 0.0 0.0
17:19 24.5 12.5 47 1022.5 6.0 WNW 9.2 0.0 0.0
17:20 24.4 12.7 48 1022.5 6.0 NW 9.2 0.0 0.0
17:21 24.4 12.4 47 1022.7 6.0 NW 9.2 0.0 0.0
17:22 24.5 12.5 47 1022.7 7.6 N 9.2 0.0 0.0
17:23 24.4 12.4 47 1022.6 7.6 NW 9.2 0.0 0.0
17:24 24.4 12.7 48 1022.6 6.0 SE 9.2 0.0 0.0
17:25 24.5 12.8 48 1022.5 6.9 SW 9.2 0.0 0.0
17:26 24.5 12.8 48 1022.6 3.8 W 9.2 0.0 0.0
17:27 24.5 12.5 47 1022.6 4.5 NW 8.3 0.0 0.0
17:28 24.5 12.5 47 1022.6 4.5 W 8.3 0.0 0.0
17:29 24.4 12.7 48 1022.5 4.5 NW 8.3 0.0 0.0
17:31 24.4 12.7 48 1022.6 4.5 NW 8.3 0.0 0.0
17:32 24.5 12.8 48 1022.6 6.0 NW 8.3 0.0 0.0
17:33 24.5 13.1 49 1022.6 4.5 NW 8.3 0.0 0.0
17:34 24.5 12.8 48 1022.6 5.4 NW 8.3 0.0 0.0
17:35 24.6 12.9 48 1022.6 3.8 N 8.3 0.0 0.0
17:36 24.6 12.6 47 1022.6 9.2 N 9.2 0.0 0.0
17:37 24.6 12.6 47 1022.6 8.3 W 9.2 0.0 0.0
17:38 24.6 12.9 48 1022.6 8.3 WNW 9.2 0.0 0.0
17:39 24.6 12.6 47 1022.7 6.0 N 9.2 0.0 0.0
17:40 24.6 12.6 47 1022.6 6.9 N 9.2 0.0 0.0
17:41 24.5 12.8 48 1022.5 3.8 SW 9.2 0.0 0.0
17:42 24.6 12.9 48 1022.6 8.3 NW 9.2 0.0 0.0
17:43 24.6 12.6 47 1022.5 7.6 NW 9.2 0.0 0.0
17:44 24.6 12.6 47 1022.5 4.5 NW 9.2 0.0 0.0
17:45 24.5 12.8 48 1022.7 5.4 W 9.2 0.0 0.0
17:46 24.5 12.8 48 1022.4 6.0 W 9.2 0.0 0.0
17:47 24.5 12.8 48 1022.6 3.8 NW 9.2 0.0 0.0
17:48 24.6 12.6 47 1022.6 5.4 N 9.2 0.0 0.0
17:50 24.6 12.6 47 1022.6 4.5 NE 8.3 0.0 0.0
17:51 24.6 12.6 47 1022.5 9.2 N 9.2 0.0 0.0
17:52 24.5 12.1 46 1022.5 8.3 NW 9.2 0.0 0.0
17:53 24.5 12.1 46 1022.5 4.5 S 9.2 0.0 0.0
17:54 24.5 12.5 47 1022.4 6.9 N 9.2 0.0 0.0
17:55 24.5 12.5 47 1022.5 6.0 N 9.2 0.0 0.0
17:56 24.5 12.5 47 1022.6 6.0 N 9.2 0.0 0.0
17:57 24.5 12.5 47 1022.6 6.9 NW 9.2 0.0 0.0
17:58 24.5 12.1 46 1022.6 4.5 NE 9.2 0.0 0.0
17:59 24.4 12.4 47 1022.6 7.6 SE 9.2 0.0 0.0
18:00 24.4 12.4 47 1022.7 4.5 NW 9.2 0.0 0.0
18:01 24.4 12.4 47 1022.5 4.5 NW 9.2 0.0 0.0
18:02 24.4 12.7 48 1022.5 5.4 N 8.3 0.0 0.0
18:03 24.4 12.7 48 1022.6 5.4 W 8.3 0.0 0.0
18:04 24.4 12.4 47 1022.6 7.6 NE 8.3 0.0 0.0
18:05 24.4 12.4 47 1022.6 9.2 SW 9.2 0.0 0.0
18:06 24.4 12.4 47 1022.6 8.3 NW 9.2 0.0 0.0
18:07 24.4 12.4 47 1022.6 6.0 SE 9.2 0.0 0.0
18:09 24.3 12.3 47 1022.4 5.4 W 9.2 0.0 0.0
18:10 24.3 12.3 47 1022.7 6.9 N 9.2 0.0 0.0
18:11 24.3 12.3 47 1022.5 9.2 N 9.2 0.0 0.0
18:12 24.3 12.3 47 1022.5 7.6 NE 9.2 0.0 0.0
18:13 24.3 12.3 47 1022.5 4.5 E 9.2 0.0 0.0
18:14 24.3 12.3 47 1022.6 6.0 E 9.2 0.0 0.0
18:15 24.3 12.3 47 1022.6 6.0 E 9.2 0.0 0.0
18:16 24.2 12.2 47 1022.7 5.4 N 9.2 0.0 0.0
18:17 24.2 12.5 48 1022.6 8.3 NW 9.2 0.0 0.0
18:18 24.2 12.5 48 1022.7 6.9 N 9.2 0.0 0.0
18:19 24.2 12.5 48 1022.6 7.6 NW 9.2 0.0 0.0
18:20 24.2 12.2 47 1022.6 9.8 N 9.8 0.0 0.0
18:21 24.2 12.2 47 1022.7 6.0 NW 9.8 0.0 0.0
18:22 24.2 12.2 47 1022.5 6.0 NW 9.8 0.0 0.0
18:23 24.1 12.1 47 1022.5 8.3 N 9.8 0.0 0.0
18:24 24.1 12.1 47 1022.6 6.9 S 9.8 0.0 0.0
18:25 24.0 12.3 48 1022.5 6.9 W 9.8 0.0 0.0
18:26 24.0 12.3 48 1022.5 6.9 W 9.8 0.0 0.0
18:28 23.9 12.2 48 1022.6 3.1 NW 9.8 0.0 0.0
18:29 23.9 12.2 48 1022.6 6.9 NW 9.8 0.0 0.0
18:30 24.0 12.3 48 1022.5 6.0 N 8.3 0.0 0.0
18:31 24.0 12.3 48 1022.4 5.4 N 8.3 0.0 0.0
18:32 24.0 12.3 48 1022.5 4.5 NW 8.3 0.0 0.0
18:33 24.0 12.3 48 1022.6 8.3 W 8.3 0.0 0.0
18:34 24.0 12.3 48 1022.6 8.3 W 8.3 0.0 0.0
18:35 23.9 11.9 47 1022.5 6.9 W 8.3 0.0 0.0
18:36 23.8 11.8 47 1022.6 8.3 WSW 8.3 0.0 0.0
18:37 23.7 11.7 47 1022.6 6.0 NW 8.3 0.0 0.0
18:38 23.7 11.7 47 1022.4 3.8 N 8.3 0.0 0.0
18:39 23.6 12.3 49 1022.4 5.4 N 8.3 0.0 0.0
18:40 23.6 12.0 48 1022.6 6.9 N 8.3 0.0 0.0
18:41 23.6 12.3 49 1022.5 6.0 NW 8.3 0.0 0.0
18:42 23.6 12.0 48 1022.4 7.6 S 8.3 0.0 0.0
18:43 23.6 12.3 49 1022.5 6.0 N 8.3 0.0 0.0
18:44 23.6 12.3 49 1022.4 4.5 W 8.3 0.0 0.0
18:45 23.6 12.3 49 1022.5 5.4 E 8.3 0.0 0.0
18:47 23.6 12.3 49 1022.5 6.9 NE 7.6 0.0 0.0
18:48 23.6 12.6 50 1022.5 4.5 NW 7.6 0.0 0.0
18:49 23.6 12.6 50 1022.6 3.1 NW 7.6 0.0 0.0
18:50 23.6 12.6 50 1022.5 4.5 NW 7.6 0.0 0.0
18:51 23.6 12.6 50 1022.6 6.9 NW 7.6 0.0 0.0
18:52 23.6 12.6 50 1022.4 5.4 NW 6.9 0.0 0.0
18:53 23.6 12.6 50 1022.4 5.4 NW 6.9 0.0 0.0
18:54 23.6 12.6 50 1022.5 3.1 NE 6.9 0.0 0.0
18:55 23.7 12.7 50 1022.4 3.8 WNW 6.9 0.0 0.0
18:56 23.7 12.7 50 1022.5 6.9 NW 6.9 0.0 0.0
18:57 23.7 12.7 50 1022.4 5.4 NW 6.9 0.0 0.0
18:58 23.7 12.4 49 1022.5 6.9 NE 6.9 0.0 0.0
18:59 23.6 12.3 49 1022.5 5.4 N 6.9 0.0 0.0
19:00 23.6 12.3 49 1022.3 6.9 N 6.9 0.0 0.0
19:01 23.6 12.3 49 1022.5 6.9 N 6.9 0.0 0.0
19:02 23.6 12.3 49 1022.5 4.5 NW 6.9 0.0 0.0
19:03 23.6 12.3 49 1022.5 3.1 N 6.9 0.0 0.0
19:04 23.6 12.3 49 1022.5 3.8 N 6.9 0.0 0.0
19:06 23.5 12.2 49 1022.5 6.9 N 7.6 0.0 0.0
19:07 23.5 12.2 49 1022.6 5.4 NW 7.6 0.0 0.0
19:08 23.4 12.1 49 1022.5 6.9 NW 7.6 0.0 0.0
19:09 23.4 12.1 49 1022.5 5.4 W 7.6 0.0 0.0
19:11 23.4 12.4 50 1022.5 7.6 NW 7.6 0.0 0.0
19:12 23.3 12.3 50 1022.6 6.0 NW 7.6 0.0 0.0
19:13 23.3 12.3 50 1022.5 6.0 N 7.6 0.0 0.0
19:14 23.3 12.6 51 1022.4 5.4 NNW 7.6 0.0 0.0
19:15 23.3 12.6 51 1022.6 7.6 NW 7.6 0.0 0.0
19:16 23.3 12.6 51 1022.5 5.4 N 7.6 0.0 0.0
19:17 23.3 12.6 51 1022.5 3.8 N 7.6 0.0 0.0
19:18 23.2 12.5 51 1022.5 4.5 NW 7.6 0.0 0.0
19:19 23.2 12.5 51 1022.6 4.5 W 7.6 0.0 0.0
19:20 23.2 12.8 52 1022.6 4.5 N 7.6 0.0 0.0
19:21 23.2 12.8 52 1022.6 3.1 NE 7.6 0.0 0.0
19:22 23.2 12.8 52 1022.5 5.4 NW 7.6 0.0 0.0
19:23 23.2 12.8 52 1022.5 6.9 W 7.6 0.0 0.0
19:24 23.2 12.8 52 1022.5 5.4 N 7.6 0.0 0.0
19:25 23.2 12.8 52 1022.7 2.2 N 7.6 0.0 0.0
19:26 23.2 12.8 52 1022.5 7.6 N 7.6 0.0 0.0
19:27 23.1 12.7 52 1022.6 6.9 NW 7.6 0.0 0.0
19:29 23.1 12.7 52 1022.4 6.9 N 7.6 0.0 0.0
19:30 23.1 12.7 52 1022.5 3.8 W 7.6 0.0 0.0
19:31 23.1 12.7 52 1022.5 6.0 NW 7.6 0.0 0.0
19:32 23.0 12.6 52 1022.5 5.4 NW 7.6 0.0 0.0
19:33 23.0 12.6 52 1022.3 4.5 N 7.6 0.0 0.0
19:34 23.0 12.6 52 1022.3 4.5 N 7.6 0.0 0.0
19:35 23.0 12.6 52 1022.6 5.4 SW 7.6 0.0 0.0
19:36 23.0 12.6 52 1022.6 4.5 NE 7.6 0.0 0.0
19:37 22.9 12.5 52 1022.6 5.4 NW 6.9 0.0 0.0
19:38 22.9 12.5 52 1022.5 3.1 N 6.9 0.0 0.0
19:39 22.9 12.5 52 1022.5 6.9 NW 6.9 0.0 0.0
19:40 22.9 12.5 52 1022.6 3.8 N 6.9 0.0 0.0
19:41 22.8 12.7 53 1022.6 3.8 NW 6.9 0.0 0.0
19:42 22.8 12.7 53 1022.5 3.8 WNW 6.9 0.0 0.0
19:43 22.8 12.7 53 1022.4 6.0 W 6.9 0.0 0.0
19:44 22.7 12.6 53 1022.4 6.9 W 6.9 0.0 0.0
19:45 22.7 12.6 53 1022.4 5.4 N 6.9 0.0 0.0
19:46 22.6 12.6 53 1022.4 3.8 SW 6.9 0.0 0.0
19:48 22.6 12.6 53 1022.5 3.8 W 6.9 0.0 0.0
19:49 22.6 12.6 53 1022.6 3.8 NW 6.9 0.0 0.0
19:50 22.6 12.8 54 1022.4 2.2 W 6.9 0.0 0.0
19:51 22.6 12.8 54 1022.4 5.4 NW 6.9 0.0 0.0
19:52 22.5 12.7 54 1022.5 3.8 NE 6.9 0.0 0.0
19:53 22.5 12.7 54 1022.4 4.5 WNW 6.9 0.0 0.0
19:54 22.5 12.7 54 1022.4 4.5 WNW 6.9 0.0 0.0
19:55 22.5 12.7 54 1022.4 6.0 NW 6.0 0.0 0.0
19:56 22.4 12.7 54 1022.4 3.8 N 6.0 0.0 0.0
19:57 22.4 12.7 54 1022.4 3.1 NW 6.0 0.0 0.0
19:58 22.4 12.7 54 1022.4 4.5 NW 6.0 0.0 0.0
19:59 22.3 12.6 54 1022.5 6.9 N 6.9 0.0 0.0
20:00 22.3 12.6 54 1022.4 7.6 N 7.6 0.0 0.0
20:01 22.3 12.6 54 1022.4 7.6 N 7.6 0.0 0.0
20:02 22.2 12.5 54 1022.5 1.6 NW 7.6 0.0 0.0
20:03 22.2 12.7 55 1022.3 6.0 N 7.6 0.0 0.0
20:04 22.1 12.7 55 1022.3 6.0 NW 7.6 0.0 0.0
20:05 22.1 12.7 55 1022.3 4.5 N 7.6 0.0 0.0
20:07 22.1 12.7 55 1022.4 3.8 NE 7.6 0.0 0.0
20:08 22.0 12.6 55 1022.4 4.5 NW 7.6 0.0 0.0
20:09 22.0 12.6 55 1022.4 5.4 N 7.6 0.0 0.0
20:10 22.0 12.6 55 1022.5 4.5 NE 7.6 0.0 0.0
20:11 21.9 12.5 55 1022.4 5.4 W 6.9 0.0 0.0
20:12 21.9 12.5 55 1022.4 5.4 N 6.9 0.0 0.0
20:13 21.9 12.5 55 1022.3 3.8 NW 6.9 0.0 0.0
20:14 21.8 12.4 55 1022.3 4.5 WNW 6.9 0.0 0.0
20:15 21.8 12.4 55 1022.4 4.5 NW 6.9 0.0 0.0
20:16 21.7 12.3 55 1022.4 4.5 NW 6.9 0.0 0.0
20:17 21.7 12.3 55 1022.4 4.5 NW 6.9 0.0 0.0
20:18 21.7 12.3 55 1022.3 4.5 NW 6.9 0.0 0.0
20:19 21.6 12.5 56 1022.4 3.8 NW 6.0 0.0 0.0
20:20 21.6 12.5 56 1022.5 3.8 NW 6.0 0.0 0.0
20:21 21.6 12.5 56 1022.4 4.5 SW 6.0 0.0 0.0
20:22 21.5 12.4 56 1022.3 3.8 NW 6.0 0.0 0.0
20:23 21.5 12.4 56 1022.4 3.1 WNW 6.0 0.0 0.0
20:24 21.5 12.4 56 1022.4 4.5 NW 6.0 0.0 0.0
20:25 21.4 12.3 56 1022.4 3.1 N 6.0 0.0 0.0
20:27 21.4 12.3 56 1022.5 3.1 NW 6.0 0.0 0.0
20:28 21.4 12.3 56 1022.4 2.2 N 4.5 0.0 0.0
20:29 21.3 12.5 57 1022.4 3.1 NW 4.5 0.0 0.0
20:30 21.3 12.5 57 1022.5 3.1 N 4.5 0.0 0.0
20:31 21.3 12.5 57 1022.4 3.1 NW 4.5 0.0 0.0
20:32 21.2 12.4 57 1022.4 3.1 W 4.5 0.0 0.0
20:33 21.2 12.4 57 1022.4 1.6 N 4.5 0.0 0.0
20:34 21.1 12.3 57 1022.4 3.1 W 4.5 0.0 0.0
20:35 21.1 12.3 57 1022.3 3.1 W 3.1 0.0 0.0
20:36 21.1 12.5 58 1022.5 2.2 W 3.1 0.0 0.0
20:37 21.0 12.4 58 1022.4 3.1 N 3.1 0.0 0.0
20:38 20.9 12.3 58 1022.3 3.1 NW 3.8 0.0 0.0
20:39 20.9 12.3 58 1022.4 3.8 N 3.8 0.0 0.0
20:40 20.9 12.3 58 1022.3 3.1 NW 3.8 0.0 0.0
20:41 20.8 12.5 59 1022.3 3.1 NW 3.8 0.0 0.0
20:42 20.7 12.4 59 1022.3 1.6 W 3.8 0.0 0.0
20:43 20.7 12.4 59 1022.3 1.6 NW 3.8 0.0 0.0
20:45 20.5 12.2 59 1022.4 3.8 NW 3.8 0.0 0.0
20:46 20.5 12.2 59 1022.4 1.6 W 3.8 0.0 0.0
20:47 20.5 12.5 60 1022.4 2.2 N 3.8 0.0 0.0
20:48 20.4 12.4 60 1022.4 1.6 N 3.8 0.0 0.0
20:49 20.3 12.3 60 1022.4 2.2 N 3.8 0.0 0.0
20:50 20.3 12.3 60 1022.4 2.2 NW 3.8 0.0 0.0
20:51 20.3 12.5 61 1022.5 3.1 NW 3.8 0.0 0.0
20:52 20.2 12.5 61 1022.5 3.1 W 3.8 0.0 0.0
20:53 20.2 12.5 61 1022.4 2.2 N 3.8 0.0 0.0
20:54 20.1 12.4 61 1022.4 3.1 N 3.8 0.0 0.0
20:55 20.0 12.5 62 1022.3 1.6 N 3.8 0.0 0.0
20:56 20.0 12.5 62 1022.3 2.2 N 3.1 0.0 0.0
20:57 20.0 12.5 62 1022.5 2.2 NW 3.1 0.0 0.0
20:58 19.9 12.4 62 1022.4 2.2 NW 3.1 0.0 0.0
20:59 19.8 12.3 62 1022.3 3.1 N 3.1 0.0 0.0
21:00 19.8 12.3 62 1022.4 3.8 NW 3.8 0.0 0.0
21:01 19.7 12.5 63 1022.4 2.2 N 3.8 0.0 0.0
21:02 19.6 12.4 63 1022.5 1.6 NW 3.8 0.0 0.0
21:04 19.5 12.3 63 1022.5 1.6 N 3.8 0.0 0.0
21:05 19.4 12.2 63 1022.5 1.6 NW 3.8 0.0 0.0
21:06 19.4 12.4 64 1022.6 1.6 N 3.8 0.0 0.0
21:07 19.3 12.3 64 1022.4 1.6 N 3.8 0.0 0.0
21:08 19.3 12.3 64 1022.5 1.6 NW 3.8 0.0 0.0
21:09 19.2 12.2 64 1022.6 1.6 NW 3.8 0.0 0.0
21:11 19.1 12.1 64 1022.7 2.2 N 2.2 0.0 0.0
21:12 19.1 12.1 64 1022.5 2.2 N 2.2 0.0 0.0
21:13 19.0 12.3 65 1022.5 1.6 NW 2.2 0.0 0.0
21:14 19.0 12.3 65 1022.6 2.2 NW 2.2 0.0 0.0
21:15 18.9 12.2 65 1022.6 2.2 N 2.2 0.0 0.0
21:16 18.9 12.2 65 1022.6 2.2 NE 2.2 0.0 0.0
21:17 18.9 12.2 65 1022.4 2.2 N 2.2 0.0 0.0
21:18 18.8 12.1 65 1022.5 5.4 N 5.4 0.0 0.0
21:19 18.8 12.3 66 1022.5 2.2 NW 5.4 0.0 0.0
21:20 18.7 12.2 66 1022.6 1.6 NW 5.4 0.0 0.0
21:21 18.7 12.2 66 1022.5 3.8 NW 5.4 0.0 0.0
21:22 18.7 12.2 66 1022.6 3.8 NW 5.4 0.0 0.0
21:23 18.6 12.1 66 1022.5 3.8 N 5.4 0.0 0.0
21:24 18.6 12.1 66 1022.6 2.2 NW 5.4 0.0 0.0
21:25 18.5 12.3 67 1022.5 2.2 NW 5.4 0.0 0.0
21:26 18.5 12.3 67 1022.7 1.6 W 5.4 0.0 0.0
21:27 18.4 12.2 67 1022.6 2.2 NW 5.4 0.0 0.0
21:28 18.4 12.2 67 1022.6 1.6 NW 3.8 0.0 0.0
21:30 18.3 12.1 67 1022.6 3.1 N 3.8 0.0 0.0
21:31 18.2 12.2 68 1022.6 2.2 N 3.8 0.0 0.0
21:32 18.2 12.2 68 1022.6 3.1 N 3.8 0.0 0.0
21:33 18.1 12.1 68 1022.8 3.1 N 3.1 0.0 0.0
21:34 18.1 12.1 68 1022.5 3.8 NW 3.8 0.0 0.0
21:35 18.1 12.1 68 1022.5 3.8 NW 3.8 0.0 0.0
21:36 18.0 12.0 68 1022.6 2.2 N 3.8 0.0 0.0
21:37 17.9 11.9 68 1022.6 2.2 NW 3.8 0.0 0.0
21:38 17.9 12.1 69 1022.6 3.1 NW 3.8 0.0 0.0
21:39 17.9 12.1 69 1022.6 1.6 N 3.8 0.0 0.0
21:40 17.8 12.0 69 1022.5 2.2 NW 3.8 0.0 0.0
21:41 17.8 12.0 69 1022.5 3.8 N 3.8 0.0 0.0
21:42 17.8 12.0 69 1022.7 3.1 SW 3.8 0.0 0.0
21:43 17.7 12.2 70 1022.8 3.1 NW 3.8 0.0 0.0
21:44 17.7 12.2 70 1022.7 3.1 N 3.8 0.0 0.0
21:45 17.6 12.1 70 1022.7 1.6 N 3.8 0.0 0.0
21:46 17.6 12.1 70 1022.7 2.2 NW 3.8 0.0 0.0
21:48 17.6 12.1 70 1022.8 2.2 NE 3.8 0.0 0.0
21:50 17.5 12.0 70 1022.8 1.6 NW 3.8 0.0 0.0
21:51 17.5 12.2 71 1022.8 1.6 NE 3.8 0.0 0.0
21:52 17.4 12.1 71 1022.9 1.6 NW 3.1 0.0 0.0
21:53 17.4 12.1 71 1022.8 1.6 NW 3.1 0.0 0.0
21:54 17.4 12.1 71 1022.8 2.2 NE 3.1 0.0 0.0
21:55 17.4 12.1 71 1022.9 1.6 N 2.2 0.0 0.0
21:56 17.3 12.0 71 1022.8 1.6 N 2.2 0.0 0.0
21:57 17.3 12.0 71 1022.9 1.6 NW 2.2 0.0 0.0
21:58 17.3 12.0 71 1022.9 1.6 N 2.2 0.0 0.0
21:59 17.2 12.1 72 1022.8 2.2 N 3.8 0.0 0.0
22:00 17.2 12.1 72 1022.8 0.7 NE 3.8 0.0 0.0
22:01 17.2 12.1 72 1022.9 0.7 NE 3.8 0.0 0.0
22:02 17.2 12.1 72 1022.8 2.2 W 3.8 0.0 0.0
22:03 17.1 12.0 72 1022.8 1.6 NW 3.8 0.0 0.0
22:04 17.1 12.0 72 1022.8 0.7 NW 3.8 0.0 0.0
22:05 17.1 12.0 72 1022.8 1.6 NW 3.8 0.0 0.0
22:06 17.1 12.0 72 1022.8 1.6 NW 3.8 0.0 0.0
22:07 17.0 11.9 72 1022.8 1.6 N 3.8 0.0 0.0
22:09 17.0 12.1 73 1022.9 1.6 NE 3.8 0.0 0.0
22:10 17.0 12.1 73 1022.8 1.6 NW 2.2 0.0 0.0
22:11 17.0 12.1 73 1022.8 1.6 NW 2.2 0.0 0.0
22:12 16.9 12.0 73 1022.8 1.6 NW 2.2 0.0 0.0
22:13 16.9 12.0 73 1023.0 1.6 N 2.2 0.0 0.0
22:14 16.9 12.0 73 1023.1 0.7 N 2.2 0.0 0.0
22:15 16.9 12.0 73 1023.1 0.7 N 1.6 0.0 0.0
22:16 16.8 11.9 73 1023.1 2.2 NW 2.2 0.0 0.0
22:17 16.8 12.1 74 1023.1 2.2 N 2.2 0.0 0.0
22:18 16.8 12.1 74 1023.0 2.2 N 2.2 0.0 0.0
22:19 16.8 12.1 74 1023.0 1.6 N 2.2 0.0 0.0
22:20 16.8 12.1 74 1023.0 1.6 N 2.2 0.0 0.0
22:21 16.8 12.1 74 1023.0 2.2 N 2.2 0.0 0.0
22:22 16.7 12.1 74 1023.1 1.6 NW 2.2 0.0 0.0
22:23 16.7 12.1 74 1022.9 3.1 N 3.1 0.0 0.0
22:24 16.7 12.1 74 1023.0 1.6 NNW 3.1 0.0 0.0
22:25 16.7 12.1 74 1023.0 0.7 N 3.1 0.0 0.0
22:26 16.7 12.3 75 1023.0 1.6 N 3.1 0.0 0.0
22:28 16.7 12.3 75 1022.9 1.6 NW 3.1 0.0 0.0
22:29 16.6 12.2 75 1023.1 2.2 N 3.1 0.0 0.0
22:30 16.6 12.2 75 1023.1 1.6 N 3.1 0.0 0.0
22:31 16.6 12.2 75 1023.0 1.6 N 3.1 0.0 0.0
22:32 16.6 12.2 75 1023.1 3.1 N 3.1 0.0 0.0
22:33 16.6 12.2 75 1023.1 1.6 N 3.1 0.0 0.0
22:34 16.6 12.2 75 1022.9 2.2 NNE 3.1 0.0 0.0
22:35 16.6 12.2 75 1023.1 0.7 NE 3.1 0.0 0.0
22:36 16.6 12.4 76 1023.1 2.2 N 3.1 0.0 0.0
22:37 16.5 12.3 76 1023.0 1.6 N 3.1 0.0 0.0
22:38 16.6 12.4 76 1023.1 3.1 N 3.1 0.0 0.0
22:39 16.5 12.3 76 1023.0 2.2 N 3.1 0.0 0.0
22:40 16.5 12.3 76 1023.0 2.2 N 3.1 0.0 0.0
22:41 16.5 12.3 76 1023.1 1.6 N 3.1 0.0 0.0
22:42 16.5 12.3 76 1023.1 2.2 NE 3.1 0.0 0.0
22:43 16.5 12.3 76 1023.0 2.2 N 3.1 0.0 0.0
22:44 16.5 12.3 76 1023.0 1.6 NW 3.1 0.0 0.0
22:45 16.5 12.3 76 1023.1 2.2 N 3.1 0.0 0.0
22:46 16.5 12.3 76 1023.1 1.6 NW 3.1 0.0 0.0
22:47 16.5 12.3 76 1022.9 2.2 NE 3.1 0.0 0.0
22:48 16.5 12.3 76 1023.1 1.6 NW 3.1 0.0 0.0
22:50 16.4 12.4 77 1023.0 1.6 N 2.2 0.0 0.0
22:51 16.4 12.4 77 1023.0 1.6 NW 2.2 0.0 0.0
22:52 16.4 12.4 77 1023.0 2.2 N 2.2 0.0 0.0
22:53 16.4 12.4 77 1023.0 2.2 N 2.2 0.0 0.0
22:54 16.4 12.4 77 1023.0 1.6 N 2.2 0.0 0.0
22:55 16.4 12.4 77 1023.0 1.6 N 2.2 0.0 0.0
22:56 16.3 12.3 77 1023.0 3.1 NW 3.1 0.0 0.0
22:57 16.4 12.4 77 1023.0 1.6 N 3.1 0.0 0.0
22:58 16.4 12.4 77 1023.0 1.6 N 3.1 0.0 0.0
22:59 16.3 12.3 77 1022.8 2.2 N 3.1 0.0 0.0
23:00 16.3 12.3 77 1023.0 2.2 N 3.1 0.0 0.0
23:01 16.3 12.3 77 1023.0 2.2 N 3.1 0.0 0.0
23:02 16.3 12.3 77 1022.8 2.2 N 3.1 0.0 0.0
23:03 16.3 12.3 77 1022.8 2.2 N 3.1 0.0 0.0
23:04 16.3 12.3 77 1022.9 2.2 N 3.1 0.0 0.0
23:05 16.3 12.3 77 1023.0 2.2 N 3.1 0.0 0.0
23:06 16.3 12.5 78 1023.0 2.2 N 3.1 0.0 0.0
23:07 16.3 12.5 78 1023.1 0.7 N 2.2 0.0 0.0
23:08 16.3 12.5 78 1023.1 0.7 N 2.2 0.0 0.0
23:09 16.3 12.5 78 1023.1 2.2 N 2.2 0.0 0.0
23:10 16.3 12.5 78 1023.1 1.6 NW 2.2 0.0 0.0
23:11 16.2 12.4 78 1023.0 2.2 NE 2.2 0.0 0.0
23:12 16.2 12.4 78 1023.0 3.1 N 3.1 0.0 0.0
23:13 16.2 12.4 78 1022.9 1.6 N 3.1 0.0 0.0
23:14 16.2 12.4 78 1023.0 2.2 NE 3.1 0.0 0.0
23:15 16.2 12.4 78 1023.1 1.6 N 3.1 0.0 0.0
23:16 16.2 12.4 78 1023.0 2.2 N 3.1 0.0 0.0
23:17 16.2 12.4 78 1023.0 3.1 N 3.1 0.0 0.0
23:18 16.2 12.4 78 1023.0 3.1 NW 3.1 0.0 0.0
23:19 16.2 12.4 78 1023.0 2.2 N 3.1 0.0 0.0
23:20 16.2 12.4 78 1023.0 2.2 N 3.1 0.0 0.0
23:21 16.2 12.4 78 1022.9 1.6 NW 3.1 0.0 0.0
23:22 16.2 12.6 79 1022.8 2.2 N 3.1 0.0 0.0
23:23 16.2 12.4 78 1022.9 2.2 NW 3.1 0.0 0.0
23:24 16.2 12.6 79 1023.0 2.2 N 3.1 0.0 0.0
23:25 16.1 12.5 79 1022.8 1.6 N 3.1 0.0 0.0
23:26 16.1 12.5 79 1023.0 1.6 N 3.1 0.0 0.0
23:27 16.1 12.5 79 1022.9 0.7 N 3.1 0.0 0.0
23:28 16.1 12.5 79 1022.9 0.7 N 3.1 0.0 0.0
23:30 16.1 12.5 79 1023.0 0.7 NW 2.2 0.0 0.0
23:31 16.0 12.4 79 1023.0 1.6 NW 2.2 0.0 0.0
23:32 16.0 12.4 79 1022.9 0.7 NW 2.2 0.0 0.0
23:33 16.0 12.4 79 1022.8 2.2 NW 2.2 0.0 0.0
23:34 16.0 12.4 79 1022.9 0.7 N 2.2 0.0 0.0
23:35 16.0 12.4 79 1022.8 2.2 NW 2.2 0.0 0.0
23:36 16.0 12.4 79 1023.0 2.2 N 2.2 0.0 0.0
23:37 15.9 12.3 79 1023.0 1.6 N 2.2 0.0 0.0
23:38 15.9 12.3 79 1022.8 1.6 N 2.2 0.0 0.0
23:39 15.9 12.3 79 1022.8 1.6 N 2.2 0.0 0.0
23:40 15.9 12.3 79 1022.9 0.7 NW 2.2 0.0 0.0
23:41 15.9 12.3 79 1023.1 0.0 N 2.2 0.0 0.0
23:42 15.9 12.3 79 1022.8 2.2 N 2.2 0.0 0.0
23:43 15.9 12.3 79 1023.0 2.2 NW 2.2 0.0 0.0
23:44 15.9 12.3 79 1023.0 2.2 NW 2.2 0.0 0.0
23:45 15.9 12.3 79 1022.8 2.2 NW 2.2 0.0 0.0
23:46 15.8 12.2 79 1022.9 2.2 NW 2.2 0.0 0.0
23:47 15.8 12.2 79 1022.9 3.1 N 3.1 0.0 0.0
23:48 15.8 12.2 79 1022.8 2.2 N 3.1 0.0 0.0
23:49 15.8 12.4 80 1022.9 1.6 N 3.1 0.0 0.0
23:50 15.8 12.4 80 1023.0 1.6 N 3.1 0.0 0.0
23:51 15.8 12.4 80 1022.9 0.7 N 3.1 0.0 0.0
23:52 15.8 12.4 80 1022.8 0.7 N 3.1 0.0 0.0
23:53 15.8 12.4 80 1022.9 0.7 N 3.1 0.0 0.0
23:54 15.8 12.4 80 1022.8 0.7 N 3.1 0.0 0.0
23:55 15.8 12.4 80 1022.9 0.7 N 3.1 0.0 0.0
23:56 15.8 12.4 80 1023.0 1.6 N 3.1 0.0 0.0
23:57 15.8 12.4 80 1022.9 2.2 NW 2.2 0.0 0.0
23:58 15.8 12.4 80 1022.9 1.6 N 2.2 0.0 0.0
23:59 15.8 12.4 80 1022.9 0.7 N 2.2 0.0 0.0

UK - WEATHER STATION TOPSITES - UK World Weather Websites

This is a private weather station, never base important decisions or events on data from this weather station. Although every effort has been made to make the data as accurate as possible it does not meet MetOffice standards. It is proved as a guide of local weather conditions. We accept no liability for any loss which may arise from use of the data.

Copyright © Carnkie Weather 2009 - 2018.